Time,TemperatureF,DewpointF,PressureIn,WindDirection,WindDirectionDegrees,WindSpeedMPH,WindSpeedGustMPH,Humidity,HourlyPrecipIn,Conditions,Clouds,dailyrainin,SoftwareType,DateUTC
2013-01-18 00:00:00,20.8,11.2,29.90,West,270,0.0,0.0,66,0.00,,,0.00,WUHU21623XXSP,2013-01-18 05:00:00,
2013-01-18 00:01:00,20.8,11.2,29.90,West,270,0.0,0.0,66,0.00,,,0.00,WUHU21623XXSP,2013-01-18 05:01:00,
2013-01-18 00:03:00,20.8,11.2,29.90,West,270,0.0,0.0,66,0.00,,,0.00,WUHU21623XXSP,2013-01-18 05:03:00,
2013-01-18 00:05:00,20.8,11.2,29.90,West,270,0.0,0.0,66,0.00,,,0.00,WUHU21623XXSP,2013-01-18 05:05:00,
2013-01-18 00:06:00,20.8,11.2,29.90,West,270,0.0,0.0,66,0.00,,,0.00,WUHU21623XXSP,2013-01-18 05:06:00,
2013-01-18 00:09:00,20.8,11.2,29.90,WSW,247,0.0,0.0,66,0.00,,,0.00,WUHU21623XXSP,2013-01-18 05:09:00,
2013-01-18 00:10:00,20.8,11.2,29.90,WSW,247,0.0,0.0,66,0.00,,,0.00,WUHU21623XXSP,2013-01-18 05:10:00,
2013-01-18 00:11:00,20.8,11.2,29.90,WSW,247,0.0,0.0,66,0.00,,,0.00,WUHU21623XXSP,2013-01-18 05:11:00,
2013-01-18 00:14:00,20.8,11.2,29.90,WSW,247,0.0,0.0,66,0.00,,,0.00,WUHU21623XXSP,2013-01-18 05:14:00,
2013-01-18 00:16:00,20.8,11.2,29.90,WSW,247,0.0,0.0,66,0.00,,,0.00,WUHU21623XXSP,2013-01-18 05:16:00,
2013-01-18 00:19:00,20.7,11.4,29.90,WSW,247,0.0,0.0,67,0.00,,,0.00,WUHU21623XXSP,2013-01-18 05:19:00,
2013-01-18 00:21:00,20.7,11.4,29.90,WSW,247,0.0,0.0,67,0.00,,,0.00,WUHU21623XXSP,2013-01-18 05:21:00,
2013-01-18 00:24:00,20.5,11.2,29.90,WSW,247,0.0,0.0,67,0.00,,,0.00,WUHU21623XXSP,2013-01-18 05:24:00,
2013-01-18 00:26:00,20.5,11.2,29.90,WSW,247,0.0,0.0,67,0.00,,,0.00,WUHU21623XXSP,2013-01-18 05:26:00,
2013-01-18 00:29:00,20.5,11.2,29.90,WSW,247,1.6,1.6,67,0.00,,,0.00,WUHU21623XXSP,2013-01-18 05:29:00,
2013-01-18 00:31:00,20.5,11.2,29.90,WSW,247,0.0,1.6,67,0.00,,,0.00,WUHU21623XXSP,2013-01-18 05:31:00,
2013-01-18 00:34:00,20.5,11.2,29.91,West,270,2.5,2.5,67,0.00,,,0.00,WUHU21623XXSP,2013-01-18 05:34:00,
2013-01-18 00:36:00,20.5,11.2,29.91,West,270,2.5,2.5,67,0.00,,,0.00,WUHU21623XXSP,2013-01-18 05:36:00,
2013-01-18 00:39:00,20.5,11.5,29.91,WSW,247,0.0,2.5,68,0.00,,,0.00,WUHU21623XXSP,2013-01-18 05:39:00,
2013-01-18 00:41:00,20.5,11.5,29.91,West,270,0.0,2.5,68,0.00,,,0.00,WUHU21623XXSP,2013-01-18 05:41:00,
2013-01-18 00:44:00,20.7,11.7,29.92,West,270,0.0,2.5,68,0.00,,,0.00,WUHU21623XXSP,2013-01-18 05:44:00,
2013-01-18 00:46:00,20.7,11.7,29.92,West,270,0.0,2.5,68,0.00,,,0.00,WUHU21623XXSP,2013-01-18 05:46:00,
2013-01-18 00:47:00,20.7,11.7,29.91,West,270,0.0,2.5,68,0.00,,,0.00,WUHU21623XXSP,2013-01-18 05:47:00,
2013-01-18 00:50:00,20.7,11.7,29.91,West,270,0.0,2.5,68,0.00,,,0.00,WUHU21623XXSP,2013-01-18 05:50:00,
2013-01-18 00:51:00,20.8,11.9,29.91,WSW,247,4.0,4.0,68,0.00,,,0.00,WUHU21623XXSP,2013-01-18 05:51:00,
2013-01-18 00:52:00,20.8,11.9,29.91,WSW,247,4.0,4.0,68,0.00,,,0.00,WUHU21623XXSP,2013-01-18 05:52:00,
2013-01-18 00:55:00,20.8,11.9,29.92,West,270,0.0,4.0,68,0.00,,,0.00,WUHU21623XXSP,2013-01-18 05:55:00,
2013-01-18 00:56:00,20.8,11.9,29.92,West,270,0.0,4.0,68,0.00,,,0.00,WUHU21623XXSP,2013-01-18 05:56:00,
2013-01-18 00:57:00,20.8,11.9,29.92,West,270,0.0,4.0,68,0.00,,,0.00,WUHU21623XXSP,2013-01-18 05:57:00,
2013-01-18 01:00:00,20.5,11.5,29.92,West,270,0.2,4.0,68,0.00,,,0.00,WUHU21623XXSP,2013-01-18 06:00:00,
2013-01-18 01:01:00,20.5,11.5,29.92,West,270,0.2,4.0,68,0.00,,,0.00,WUHU21623XXSP,2013-01-18 06:01:00,
2013-01-18 01:02:00,20.5,11.5,29.92,West,270,0.0,4.0,68,0.00,,,0.00,WUHU21623XXSP,2013-01-18 06:02:00,
2013-01-18 01:05:00,20.5,11.5,29.92,West,270,0.0,0.2,68,0.00,,,0.00,WUHU21623XXSP,2013-01-18 06:05:00,
2013-01-18 01:06:00,20.5,11.5,29.92,West,270,0.0,0.2,68,0.00,,,0.00,WUHU21623XXSP,2013-01-18 06:06:00,
2013-01-18 01:07:00,20.5,11.5,29.92,West,270,0.0,0.2,68,0.00,,,0.00,WUHU21623XXSP,2013-01-18 06:07:00,
2013-01-18 01:08:00,20.5,11.5,29.93,West,270,0.0,0.2,68,0.00,,,0.00,WUHU21623XXSP,2013-01-18 06:08:00,
2013-01-18 01:10:00,20.5,11.5,29.93,West,270,0.0,0.0,68,0.00,,,0.00,WUHU21623XXSP,2013-01-18 06:10:00,
2013-01-18 01:11:00,20.5,11.5,29.93,West,270,0.0,0.0,68,0.00,,,0.00,WUHU21623XXSP,2013-01-18 06:11:00,
2013-01-18 01:12:00,20.5,11.5,29.93,West,270,0.0,0.0,68,0.00,,,0.00,WUHU21623XXSP,2013-01-18 06:12:00,
2013-01-18 01:13:00,20.5,11.9,29.92,West,270,0.0,0.0,69,0.00,,,0.00,WUHU21623XXSP,2013-01-18 06:13:00,
2013-01-18 01:15:00,20.5,11.9,29.93,West,270,0.0,0.0,69,0.00,,,0.00,WUHU21623XXSP,2013-01-18 06:15:00,
2013-01-18 01:16:00,20.5,11.9,29.93,WSW,247,0.0,0.0,69,0.00,,,0.00,WUHU21623XXSP,2013-01-18 06:16:00,
2013-01-18 01:17:00,20.5,11.9,29.93,WSW,247,0.0,0.0,69,0.00,,,0.00,WUHU21623XXSP,2013-01-18 06:17:00,
2013-01-18 01:19:00,20.5,11.9,29.93,WSW,247,0.0,0.0,69,0.00,,,0.00,WUHU21623XXSP,2013-01-18 06:19:00,
2013-01-18 01:20:00,20.5,11.9,29.93,WSW,247,0.0,0.0,69,0.00,,,0.00,WUHU21623XXSP,2013-01-18 06:20:00,
2013-01-18 01:21:00,20.5,11.9,29.93,WSW,247,0.0,0.0,69,0.00,,,0.00,WUHU21623XXSP,2013-01-18 06:21:00,
2013-01-18 01:22:00,20.5,11.9,29.93,WSW,247,0.0,0.0,69,0.00,,,0.00,WUHU21623XXSP,2013-01-18 06:22:00,
2013-01-18 01:24:00,20.5,11.9,29.93,WSW,247,0.7,0.7,69,0.00,,,0.00,WUHU21623XXSP,2013-01-18 06:24:00,
2013-01-18 01:25:00,20.5,11.9,29.93,WSW,247,0.0,0.7,69,0.00,,,0.00,WUHU21623XXSP,2013-01-18 06:25:00,
2013-01-18 01:26:00,20.5,11.9,29.93,WSW,247,0.0,0.7,69,0.00,,,0.00,WUHU21623XXSP,2013-01-18 06:26:00,
2013-01-18 01:27:00,20.5,11.9,29.93,WSW,247,0.0,0.7,69,0.00,,,0.00,WUHU21623XXSP,2013-01-18 06:27:00,
2013-01-18 01:29:00,20.5,11.9,29.93,WSW,247,0.0,0.7,69,0.00,,,0.00,WUHU21623XXSP,2013-01-18 06:29:00,
2013-01-18 01:30:00,20.5,11.9,29.93,SW,225,3.4,3.4,69,0.00,,,0.00,WUHU21623XXSP,2013-01-18 06:30:00,
2013-01-18 01:31:00,20.5,11.9,29.94,WSW,247,4.7,4.7,69,0.00,,,0.00,WUHU21623XXSP,2013-01-18 06:31:00,
2013-01-18 01:32:00,20.5,11.9,29.94,WSW,247,4.7,4.7,69,0.00,,,0.00,WUHU21623XXSP,2013-01-18 06:32:00,
2013-01-18 01:34:00,20.5,11.9,29.94,WSW,247,3.8,4.7,69,0.00,,,0.00,WUHU21623XXSP,2013-01-18 06:34:00,
2013-01-18 01:35:00,20.5,11.9,29.94,WSW,247,3.8,4.7,69,0.00,,,0.00,WUHU21623XXSP,2013-01-18 06:35:00,
2013-01-18 01:36:00,20.5,11.9,29.94,WSW,247,0.0,4.7,69,0.00,,,0.00,WUHU21623XXSP,2013-01-18 06:36:00,
2013-01-18 01:37:00,20.5,11.9,29.94,WSW,247,0.0,4.7,69,0.00,,,0.00,WUHU21623XXSP,2013-01-18 06:37:00,
2013-01-18 01:39:00,20.5,11.9,29.94,WSW,247,0.0,4.7,69,0.00,,,0.00,WUHU21623XXSP,2013-01-18 06:39:00,
2013-01-18 01:41:00,20.5,12.2,29.94,WSW,247,0.0,4.7,70,0.00,,,0.00,WUHU21623XXSP,2013-01-18 06:41:00,
2013-01-18 01:42:00,20.5,12.2,29.94,WSW,247,0.0,3.8,70,0.00,,,0.00,WUHU21623XXSP,2013-01-18 06:42:00,
2013-01-18 01:43:00,20.5,12.2,29.94,WSW,247,0.0,3.8,70,0.00,,,0.00,WUHU21623XXSP,2013-01-18 06:43:00,
2013-01-18 01:44:00,20.5,12.2,29.94,WSW,247,0.0,0.0,70,0.00,,,0.00,WUHU21623XXSP,2013-01-18 06:44:00,
2013-01-18 01:46:00,20.5,12.2,29.94,WSW,247,0.0,0.0,70,0.00,,,0.00,WUHU21623XXSP,2013-01-18 06:46:00,
2013-01-18 01:47:00,20.5,12.2,29.94,WSW,247,0.0,0.0,70,0.00,,,0.00,WUHU21623XXSP,2013-01-18 06:47:00,
2013-01-18 01:48:00,20.5,12.2,29.94,WSW,247,0.0,0.0,70,0.00,,,0.00,WUHU21623XXSP,2013-01-18 06:48:00,
2013-01-18 01:50:00,20.5,12.2,29.94,WSW,247,0.0,0.0,70,0.00,,,0.00,WUHU21623XXSP,2013-01-18 06:50:00,
2013-01-18 01:51:00,20.5,12.2,29.95,WSW,247,0.0,0.0,70,0.00,,,0.00,WUHU21623XXSP,2013-01-18 06:51:00,
2013-01-18 01:52:00,20.5,12.2,29.95,WSW,247,0.0,0.0,70,0.00,,,0.00,WUHU21623XXSP,2013-01-18 06:52:00,
2013-01-18 01:53:00,20.5,12.2,29.95,WSW,247,0.0,0.0,70,0.00,,,0.00,WUHU21623XXSP,2013-01-18 06:53:00,
2013-01-18 01:55:00,20.3,12.0,29.95,SW,225,0.0,0.0,70,0.00,,,0.00,WUHU21623XXSP,2013-01-18 06:55:00,
2013-01-18 01:56:00,20.3,12.0,29.95,SW,225,0.0,0.0,70,0.00,,,0.00,WUHU21623XXSP,2013-01-18 06:56:00,
2013-01-18 01:58:00,20.3,12.0,29.95,SW,225,0.0,0.0,70,0.00,,,0.00,WUHU21623XXSP,2013-01-18 06:58:00,
2013-01-18 02:00:00,20.3,12.0,29.94,SW,225,0.0,0.0,70,0.00,,,0.00,WUHU21623XXSP,2013-01-18 07:00:00,
2013-01-18 02:01:00,20.3,12.0,29.94,WSW,247,0.0,0.0,70,0.00,,,0.00,WUHU21623XXSP,2013-01-18 07:01:00,
2013-01-18 02:03:00,20.3,12.0,29.94,WSW,247,0.0,0.0,70,0.00,,,0.00,WUHU21623XXSP,2013-01-18 07:03:00,
2013-01-18 02:05:00,20.3,12.0,29.94,WSW,247,0.0,0.0,70,0.00,,,0.00,WUHU21623XXSP,2013-01-18 07:05:00,
2013-01-18 02:06:00,20.3,12.0,29.95,WSW,247,0.0,0.0,70,0.00,,,0.00,WUHU21623XXSP,2013-01-18 07:06:00,
2013-01-18 02:08:00,20.3,12.0,29.95,WSW,247,0.0,0.0,70,0.00,,,0.00,WUHU21623XXSP,2013-01-18 07:08:00,
2013-01-18 02:10:00,20.5,12.0,29.95,WSW,247,0.0,0.0,70,0.00,,,0.00,WUHU21623XXSP,2013-01-18 07:10:00,
2013-01-18 02:11:00,20.5,12.0,29.95,WSW,247,0.0,0.0,70,0.00,,,0.00,WUHU21623XXSP,2013-01-18 07:11:00,
2013-01-18 02:13:00,20.5,12.5,29.95,West,270,0.0,0.0,71,0.00,,,0.00,WUHU21623XXSP,2013-01-18 07:13:00,
2013-01-18 02:16:00,20.5,12.5,29.95,WNW,292,3.8,3.8,71,0.00,,,0.00,WUHU21623XXSP,2013-01-18 07:16:00,
2013-01-18 02:17:00,20.5,12.5,29.95,WNW,292,3.8,3.8,71,0.00,,,0.00,WUHU21623XXSP,2013-01-18 07:17:00,
2013-01-18 02:18:00,20.5,12.5,29.95,WNW,292,3.8,3.8,71,0.00,,,0.00,WUHU21623XXSP,2013-01-18 07:18:00,
2013-01-18 02:21:00,20.5,12.2,29.95,West,270,0.0,3.8,70,0.00,,,0.00,WUHU21623XXSP,2013-01-18 07:21:00,
2013-01-18 02:22:00,20.5,12.2,29.95,West,270,0.0,3.8,70,0.00,,,0.00,WUHU21623XXSP,2013-01-18 07:22:00,
2013-01-18 02:23:00,20.5,12.5,29.95,West,270,0.0,3.8,71,0.00,,,0.00,WUHU21623XXSP,2013-01-18 07:23:00,
2013-01-18 02:24:00,20.5,12.5,29.95,West,270,0.0,3.8,71,0.00,,,0.00,WUHU21623XXSP,2013-01-18 07:24:00,
2013-01-18 02:26:00,20.5,12.5,29.95,West,270,0.0,3.8,71,0.00,,,0.00,WUHU21623XXSP,2013-01-18 07:26:00,
2013-01-18 02:27:00,20.5,12.5,29.95,West,270,1.3,1.3,71,0.00,,,0.00,WUHU21623XXSP,2013-01-18 07:27:00,
2013-01-18 02:28:00,20.5,12.5,29.95,West,270,1.3,1.3,71,0.00,,,0.00,WUHU21623XXSP,2013-01-18 07:28:00,
2013-01-18 02:29:00,20.5,12.5,29.95,West,270,1.3,1.3,71,0.00,,,0.00,WUHU21623XXSP,2013-01-18 07:29:00,
2013-01-18 02:31:00,20.5,12.5,29.96,West,270,2.7,2.7,71,0.00,,,0.00,WUHU21623XXSP,2013-01-18 07:31:00,
2013-01-18 02:32:00,20.5,12.5,29.96,West,270,0.0,2.7,71,0.00,,,0.00,WUHU21623XXSP,2013-01-18 07:32:00,
2013-01-18 02:33:00,20.5,12.5,29.96,West,270,0.0,2.7,71,0.00,,,0.00,WUHU21623XXSP,2013-01-18 07:33:00,
2013-01-18 02:34:00,20.7,12.7,29.96,West,270,3.1,3.1,71,0.00,,,0.00,WUHU21623XXSP,2013-01-18 07:34:00,
2013-01-18 02:36:00,20.8,12.7,29.96,West,270,3.1,3.1,71,0.00,,,0.00,WUHU21623XXSP,2013-01-18 07:36:00,
2013-01-18 02:38:00,20.8,12.9,29.97,WNW,292,0.0,3.1,71,0.00,,,0.00,WUHU21623XXSP,2013-01-18 07:38:00,
2013-01-18 02:39:00,20.8,12.9,29.97,WNW,292,0.0,3.1,71,0.00,,,0.00,WUHU21623XXSP,2013-01-18 07:39:00,
2013-01-18 02:41:00,20.8,12.9,29.97,WNW,292,0.0,3.1,71,0.00,,,0.00,WUHU21623XXSP,2013-01-18 07:41:00,
2013-01-18 02:43:00,20.8,12.9,29.97,West,270,0.0,3.1,71,0.00,,,0.00,WUHU21623XXSP,2013-01-18 07:43:00,
2013-01-18 02:44:00,20.8,12.9,29.97,West,270,0.0,3.1,71,0.00,,,0.00,WUHU21623XXSP,2013-01-18 07:44:00,
2013-01-18 02:46:00,20.8,12.9,29.96,West,270,0.0,0.0,71,0.00,,,0.00,WUHU21623XXSP,2013-01-18 07:46:00,
2013-01-18 02:48:00,20.8,12.9,29.96,West,270,0.0,0.0,71,0.00,,,0.00,WUHU21623XXSP,2013-01-18 07:48:00,
2013-01-18 02:49:00,20.8,12.9,29.97,West,270,0.0,0.0,71,0.00,,,0.00,WUHU21623XXSP,2013-01-18 07:49:00,
2013-01-18 02:51:00,20.8,12.9,29.97,West,270,6.9,6.9,71,0.00,,,0.00,WUHU21623XXSP,2013-01-18 07:51:00,
2013-01-18 02:53:00,20.8,12.9,29.97,West,270,0.0,6.9,71,0.00,,,0.00,WUHU21623XXSP,2013-01-18 07:53:00,
2013-01-18 02:54:00,20.8,12.9,29.97,West,270,0.0,6.9,71,0.00,,,0.00,WUHU21623XXSP,2013-01-18 07:54:00,
2013-01-18 02:56:00,20.8,12.9,29.97,West,270,0.0,6.9,71,0.00,,,0.00,WUHU21623XXSP,2013-01-18 07:56:00,
2013-01-18 02:58:00,20.8,12.9,29.97,West,270,0.0,6.9,71,0.00,,,0.00,WUHU21623XXSP,2013-01-18 07:58:00,
2013-01-18 02:59:00,20.8,12.9,29.97,West,270,0.0,6.9,71,0.00,,,0.00,WUHU21623XXSP,2013-01-18 07:59:00,
2013-01-18 03:01:00,21.0,12.9,29.98,West,270,0.0,0.0,71,0.00,,,0.00,WUHU21623XXSP,2013-01-18 08:01:00,
2013-01-18 03:03:00,21.0,12.9,29.98,West,270,0.0,0.0,71,0.00,,,0.00,WUHU21623XXSP,2013-01-18 08:03:00,
2013-01-18 03:04:00,21.0,13.0,29.98,West,270,1.3,1.3,71,0.00,,,0.00,WUHU21623XXSP,2013-01-18 08:04:00,
2013-01-18 03:06:00,21.0,13.4,29.98,West,270,0.0,1.3,72,0.00,,,0.00,WUHU21623XXSP,2013-01-18 08:06:00,
2013-01-18 03:08:00,21.0,13.0,29.98,West,270,0.0,1.3,71,0.00,,,0.00,WUHU21623XXSP,2013-01-18 08:08:00,
2013-01-18 03:09:00,21.0,13.0,29.98,West,270,0.0,1.3,71,0.00,,,0.00,WUHU21623XXSP,2013-01-18 08:09:00,
2013-01-18 03:12:00,20.8,13.0,29.98,West,270,0.0,1.3,71,0.00,,,0.00,WUHU21623XXSP,2013-01-18 08:12:00,
2013-01-18 03:13:00,20.8,12.9,29.98,West,270,0.0,1.3,71,0.00,,,0.00,WUHU21623XXSP,2013-01-18 08:13:00,
2013-01-18 03:14:00,20.8,12.9,29.98,West,270,0.0,0.0,71,0.00,,,0.00,WUHU21623XXSP,2013-01-18 08:14:00,
2013-01-18 03:15:00,20.8,12.9,29.98,West,270,0.0,0.0,71,0.00,,,0.00,WUHU21623XXSP,2013-01-18 08:15:00,
2013-01-18 03:17:00,20.8,13.2,29.98,West,270,0.0,0.0,72,0.00,,,0.00,WUHU21623XXSP,2013-01-18 08:17:00,
2013-01-18 03:18:00,20.8,13.2,29.98,West,270,0.0,0.0,72,0.00,,,0.00,WUHU21623XXSP,2013-01-18 08:18:00,
2013-01-18 03:20:00,20.8,13.2,29.99,West,270,0.0,0.0,72,0.00,,,0.00,WUHU21623XXSP,2013-01-18 08:20:00,
2013-01-18 03:22:00,20.8,13.2,29.99,West,270,0.0,0.0,72,0.00,,,0.00,WUHU21623XXSP,2013-01-18 08:22:00,
2013-01-18 03:23:00,21.0,13.4,29.99,WNW,292,0.0,0.0,72,0.00,,,0.00,WUHU21623XXSP,2013-01-18 08:23:00,
2013-01-18 03:25:00,21.0,13.4,29.99,West,270,0.0,0.0,72,0.00,,,0.00,WUHU21623XXSP,2013-01-18 08:25:00,
2013-01-18 03:27:00,21.0,13.4,29.99,West,270,0.0,0.0,72,0.00,,,0.00,WUHU21623XXSP,2013-01-18 08:27:00,
2013-01-18 03:28:00,21.0,13.4,29.99,West,270,0.0,0.0,72,0.00,,,0.00,WUHU21623XXSP,2013-01-18 08:28:00,
2013-01-18 03:30:00,21.0,13.4,29.98,WNW,292,0.0,0.0,72,0.00,,,0.00,WUHU21623XXSP,2013-01-18 08:30:00,
2013-01-18 03:32:00,21.0,13.4,29.98,WNW,292,0.0,0.0,72,0.00,,,0.00,WUHU21623XXSP,2013-01-18 08:32:00,
2013-01-18 03:33:00,21.0,13.4,29.99,WNW,292,0.0,0.0,72,0.00,,,0.00,WUHU21623XXSP,2013-01-18 08:33:00,
2013-01-18 03:35:00,21.0,13.4,29.99,WNW,292,0.0,0.0,72,0.00,,,0.00,WUHU21623XXSP,2013-01-18 08:35:00,
2013-01-18 03:36:00,21.0,13.4,29.99,WNW,292,0.0,0.0,72,0.00,,,0.00,WUHU21623XXSP,2013-01-18 08:36:00,
2013-01-18 03:37:00,21.0,13.4,29.99,WNW,292,0.0,0.0,72,0.00,,,0.00,WUHU21623XXSP,2013-01-18 08:37:00,
2013-01-18 03:38:00,21.2,13.5,29.99,WNW,292,0.0,0.0,72,0.00,,,0.00,WUHU21623XXSP,2013-01-18 08:38:00,
2013-01-18 03:41:00,21.4,13.7,29.99,WNW,292,0.0,0.0,72,0.00,,,0.00,WUHU21623XXSP,2013-01-18 08:41:00,
2013-01-18 03:42:00,21.4,13.7,29.99,WNW,292,0.0,0.0,72,0.00,,,0.00,WUHU21623XXSP,2013-01-18 08:42:00,
2013-01-18 03:43:00,21.4,13.7,29.99,WNW,292,0.0,0.0,72,0.00,,,0.00,WUHU21623XXSP,2013-01-18 08:43:00,
2013-01-18 03:46:00,21.4,13.7,29.99,WNW,292,0.0,0.0,72,0.00,,,0.00,WUHU21623XXSP,2013-01-18 08:46:00,
2013-01-18 03:47:00,21.4,13.7,29.99,WNW,292,0.0,0.0,72,0.00,,,0.00,WUHU21623XXSP,2013-01-18 08:47:00,
2013-01-18 03:49:00,21.4,13.7,29.99,WNW,292,0.0,0.0,72,0.00,,,0.00,WUHU21623XXSP,2013-01-18 08:49:00,
2013-01-18 03:51:00,21.4,13.7,29.99,WNW,292,0.0,0.0,72,0.00,,,0.00,WUHU21623XXSP,2013-01-18 08:51:00,
2013-01-18 03:53:00,21.4,13.7,29.98,WNW,292,0.0,0.0,72,0.00,,,0.00,WUHU21623XXSP,2013-01-18 08:53:00,
2013-01-18 03:54:00,21.4,13.7,29.98,WNW,292,0.0,0.0,72,0.00,,,0.00,WUHU21623XXSP,2013-01-18 08:54:00,
2013-01-18 03:56:00,21.4,13.7,29.98,WNW,292,0.0,0.0,72,0.00,,,0.00,WUHU21623XXSP,2013-01-18 08:56:00,
2013-01-18 03:57:00,21.4,13.7,29.98,WNW,292,0.0,0.0,72,0.00,,,0.00,WUHU21623XXSP,2013-01-18 08:57:00,
2013-01-18 03:58:00,21.0,13.7,29.98,WNW,292,0.0,0.0,72,0.00,,,0.00,WUHU21623XXSP,2013-01-18 08:58:00,
2013-01-18 03:59:00,21.0,13.7,29.98,WNW,292,0.0,0.0,72,0.00,,,0.00,WUHU21623XXSP,2013-01-18 08:59:00,
2013-01-18 04:01:00,21.2,13.5,29.98,NW,315,0.0,0.0,72,0.00,,,0.00,WUHU21623XXSP,2013-01-18 09:01:00,
2013-01-18 04:02:00,21.2,13.5,29.98,NW,315,0.0,0.0,72,0.00,,,0.00,WUHU21623XXSP,2013-01-18 09:02:00,
2013-01-18 04:03:00,21.2,13.5,29.98,NW,315,0.0,0.0,72,0.00,,,0.00,WUHU21623XXSP,2013-01-18 09:03:00,
2013-01-18 04:04:00,21.4,13.7,29.98,NW,315,0.0,0.0,72,0.00,,,0.00,WUHU21623XXSP,2013-01-18 09:04:00,
2013-01-18 04:06:00,21.4,13.7,29.98,NW,315,0.0,0.0,72,0.00,,,0.00,WUHU21623XXSP,2013-01-18 09:06:00,
2013-01-18 04:07:00,21.4,13.7,29.98,NW,315,0.0,0.0,72,0.00,,,0.00,WUHU21623XXSP,2013-01-18 09:07:00,
2013-01-18 04:08:00,21.4,13.7,29.98,NW,315,0.0,0.0,72,0.00,,,0.00,WUHU21623XXSP,2013-01-18 09:08:00,
2013-01-18 04:09:00,21.4,13.7,29.98,NW,315,0.0,0.0,72,0.00,,,0.00,WUHU21623XXSP,2013-01-18 09:09:00,
2013-01-18 04:11:00,21.4,13.7,29.98,NW,315,0.0,0.0,72,0.00,,,0.00,WUHU21623XXSP,2013-01-18 09:11:00,
2013-01-18 04:12:00,21.0,13.4,29.98,NW,315,0.0,0.0,72,0.00,,,0.00,WUHU21623XXSP,2013-01-18 09:12:00,
2013-01-18 04:13:00,21.0,13.4,29.98,NW,315,0.0,0.0,72,0.00,,,0.00,WUHU21623XXSP,2013-01-18 09:13:00,
2013-01-18 04:14:00,21.0,13.4,29.98,NW,315,0.0,0.0,72,0.00,,,0.00,WUHU21623XXSP,2013-01-18 09:14:00,
2013-01-18 04:16:00,21.0,13.4,29.97,NW,315,0.0,0.0,72,0.00,,,0.00,WUHU21623XXSP,2013-01-18 09:16:00,
2013-01-18 04:17:00,21.0,13.4,29.97,NW,315,0.0,0.0,72,0.00,,,0.00,WUHU21623XXSP,2013-01-18 09:17:00,
2013-01-18 04:18:00,21.0,13.4,29.98,NW,315,0.0,0.0,72,0.00,,,0.00,WUHU21623XXSP,2013-01-18 09:18:00,
2013-01-18 04:19:00,21.0,13.4,29.98,NW,315,0.0,0.0,72,0.00,,,0.00,WUHU21623XXSP,2013-01-18 09:19:00,
2013-01-18 04:21:00,21.0,13.4,29.98,NW,315,0.0,0.0,72,0.00,,,0.00,WUHU21623XXSP,2013-01-18 09:21:00,
2013-01-18 04:22:00,21.0,13.4,29.98,NW,315,0.0,0.0,72,0.00,,,0.00,WUHU21623XXSP,2013-01-18 09:22:00,
2013-01-18 04:24:00,21.0,13.4,29.98,NW,315,0.0,0.0,72,0.00,,,0.00,WUHU21623XXSP,2013-01-18 09:24:00,
2013-01-18 04:27:00,21.0,13.4,29.98,NW,315,0.0,0.0,72,0.00,,,0.00,WUHU21623XXSP,2013-01-18 09:27:00,
2013-01-18 04:28:00,21.0,13.4,29.98,NW,315,0.0,0.0,72,0.00,,,0.00,WUHU21623XXSP,2013-01-18 09:28:00,
2013-01-18 04:29:00,21.0,13.4,29.98,NW,315,0.0,0.0,72,0.00,,,0.00,WUHU21623XXSP,2013-01-18 09:29:00,
2013-01-18 04:32:00,20.8,13.4,29.98,NW,315,0.0,0.0,72,0.00,,,0.00,WUHU21623XXSP,2013-01-18 09:32:00,
2013-01-18 04:33:00,20.8,13.4,29.98,NW,315,0.0,0.0,72,0.00,,,0.00,WUHU21623XXSP,2013-01-18 09:33:00,
2013-01-18 04:34:00,20.8,13.2,29.97,NW,315,0.0,0.0,72,0.00,,,0.00,WUHU21623XXSP,2013-01-18 09:34:00,
2013-01-18 04:35:00,20.8,13.2,29.97,NW,315,0.0,0.0,72,0.00,,,0.00,WUHU21623XXSP,2013-01-18 09:35:00,
2013-01-18 04:37:00,20.8,13.2,29.97,NW,315,0.0,0.0,72,0.00,,,0.00,WUHU21623XXSP,2013-01-18 09:37:00,
2013-01-18 04:38:00,20.5,13.2,29.97,NW,315,0.0,0.0,72,0.00,,,0.00,WUHU21623XXSP,2013-01-18 09:38:00,
2013-01-18 04:39:00,20.5,13.2,29.97,NW,315,0.0,0.0,72,0.00,,,0.00,WUHU21623XXSP,2013-01-18 09:39:00,
2013-01-18 04:40:00,20.5,12.8,29.98,NW,315,0.0,0.0,72,0.00,,,0.00,WUHU21623XXSP,2013-01-18 09:40:00,
2013-01-18 04:42:00,20.3,12.6,29.97,NW,315,0.0,0.0,72,0.00,,,0.00,WUHU21623XXSP,2013-01-18 09:42:00,
2013-01-18 04:43:00,20.3,12.6,29.97,NW,315,0.0,0.0,72,0.00,,,0.00,WUHU21623XXSP,2013-01-18 09:43:00,
2013-01-18 04:44:00,20.3,12.6,29.97,NW,315,0.0,0.0,72,0.00,,,0.00,WUHU21623XXSP,2013-01-18 09:44:00,
2013-01-18 04:45:00,20.3,12.6,29.98,NW,315,0.0,0.0,72,0.00,,,0.00,WUHU21623XXSP,2013-01-18 09:45:00,
2013-01-18 04:47:00,20.1,12.5,29.98,NW,315,0.0,0.0,72,0.00,,,0.00,WUHU21623XXSP,2013-01-18 09:47:00,
2013-01-18 04:48:00,20.1,12.5,29.98,NW,315,0.0,0.0,72,0.00,,,0.00,WUHU21623XXSP,2013-01-18 09:48:00,
2013-01-18 04:49:00,19.9,12.6,29.98,NW,315,0.0,0.0,73,0.00,,,0.00,WUHU21623XXSP,2013-01-18 09:49:00,
2013-01-18 04:50:00,19.9,12.6,29.98,NW,315,0.0,0.0,73,0.00,,,0.00,WUHU21623XXSP,2013-01-18 09:50:00,
2013-01-18 04:52:00,19.9,12.6,29.97,NW,315,0.0,0.0,73,0.00,,,0.00,WUHU21623XXSP,2013-01-18 09:52:00,
2013-01-18 04:53:00,19.9,12.6,29.97,NW,315,0.0,0.0,73,0.00,,,0.00,WUHU21623XXSP,2013-01-18 09:53:00,
2013-01-18 04:54:00,19.9,12.6,29.97,NW,315,0.0,0.0,73,0.00,,,0.00,WUHU21623XXSP,2013-01-18 09:54:00,
2013-01-18 04:55:00,19.8,12.4,29.97,NW,315,0.0,0.0,73,0.00,,,0.00,WUHU21623XXSP,2013-01-18 09:55:00,
2013-01-18 04:57:00,19.6,12.2,29.97,NW,315,0.0,0.0,73,0.00,,,0.00,WUHU21623XXSP,2013-01-18 09:57:00,
2013-01-18 04:58:00,19.6,12.2,29.97,NW,315,0.0,0.0,73,0.00,,,0.00,WUHU21623XXSP,2013-01-18 09:58:00,
2013-01-18 04:59:00,19.6,12.2,29.97,NW,315,0.0,0.0,73,0.00,,,0.00,WUHU21623XXSP,2013-01-18 09:59:00,
2013-01-18 05:00:00,19.6,12.2,29.97,NW,315,0.0,0.0,73,0.00,,,0.00,WUHU21623XXSP,2013-01-18 10:00:00,
2013-01-18 05:02:00,19.6,12.2,29.97,NW,315,0.0,0.0,73,0.00,,,0.00,WUHU21623XXSP,2013-01-18 10:02:00,
2013-01-18 05:03:00,19.6,12.2,29.97,NW,315,0.0,0.0,73,0.00,,,0.00,WUHU21623XXSP,2013-01-18 10:03:00,
2013-01-18 05:04:00,19.6,12.2,29.97,NW,315,0.0,0.0,73,0.00,,,0.00,WUHU21623XXSP,2013-01-18 10:04:00,
2013-01-18 05:05:00,19.6,12.2,29.97,NW,315,0.0,0.0,73,0.00,,,0.00,WUHU21623XXSP,2013-01-18 10:05:00,
2013-01-18 05:07:00,19.6,12.2,29.97,NW,315,0.0,0.0,73,0.00,,,0.00,WUHU21623XXSP,2013-01-18 10:07:00,
2013-01-18 05:08:00,19.6,12.2,29.98,NNW,337,0.0,0.0,73,0.00,,,0.00,WUHU21623XXSP,2013-01-18 10:08:00,
2013-01-18 05:09:00,19.6,12.2,29.98,NNW,337,0.0,0.0,73,0.00,,,0.00,WUHU21623XXSP,2013-01-18 10:09:00,
2013-01-18 05:10:00,19.6,12.2,29.98,NNW,337,0.0,0.0,73,0.00,,,0.00,WUHU21623XXSP,2013-01-18 10:10:00,
2013-01-18 05:12:00,19.6,12.2,29.98,NNW,337,0.0,0.0,73,0.00,,,0.00,WUHU21623XXSP,2013-01-18 10:12:00,
2013-01-18 05:14:00,19.6,12.2,29.98,NNW,337,0.0,0.0,73,0.00,,,0.00,WUHU21623XXSP,2013-01-18 10:14:00,
2013-01-18 05:16:00,19.6,12.2,29.98,NNW,337,0.0,0.0,73,0.00,,,0.00,WUHU21623XXSP,2013-01-18 10:16:00,
2013-01-18 05:17:00,19.6,12.2,29.98,NNW,337,0.0,0.0,73,0.00,,,0.00,WUHU21623XXSP,2013-01-18 10:17:00,
2013-01-18 05:19:00,19.6,12.2,29.98,NNW,337,0.0,0.0,73,0.00,,,0.00,WUHU21623XXSP,2013-01-18 10:19:00,
2013-01-18 05:21:00,19.6,12.2,29.97,NNW,337,0.0,0.0,73,0.00,,,0.00,WUHU21623XXSP,2013-01-18 10:21:00,
2013-01-18 05:22:00,19.6,12.2,29.97,NNW,337,0.0,0.0,73,0.00,,,0.00,WUHU21623XXSP,2013-01-18 10:22:00,
2013-01-18 05:24:00,19.6,12.2,29.97,NNW,337,0.0,0.0,73,0.00,,,0.00,WUHU21623XXSP,2013-01-18 10:24:00,
2013-01-18 05:25:00,19.6,12.2,29.98,NNW,337,0.0,0.0,73,0.00,,,0.00,WUHU21623XXSP,2013-01-18 10:25:00,
2013-01-18 05:26:00,19.6,12.2,29.98,NNW,337,0.0,0.0,73,0.00,,,0.00,WUHU21623XXSP,2013-01-18 10:26:00,
2013-01-18 05:28:00,19.6,12.2,29.98,NNW,337,0.0,0.0,73,0.00,,,0.00,WUHU21623XXSP,2013-01-18 10:28:00,
2013-01-18 05:30:00,19.6,12.2,29.98,NNW,337,0.0,0.0,73,0.00,,,0.00,WUHU21623XXSP,2013-01-18 10:30:00,
2013-01-18 05:31:00,19.6,12.2,29.98,NNW,337,0.0,0.0,73,0.00,,,0.00,WUHU21623XXSP,2013-01-18 10:31:00,
2013-01-18 05:33:00,19.6,12.2,29.98,NNW,337,0.0,0.0,73,0.00,,,0.00,WUHU21623XXSP,2013-01-18 10:33:00,
2013-01-18 05:35:00,19.6,12.2,29.98,NNW,337,0.0,0.0,73,0.00,,,0.00,WUHU21623XXSP,2013-01-18 10:35:00,
2013-01-18 05:36:00,19.6,12.2,29.98,NNW,337,0.0,0.0,73,0.00,,,0.00,WUHU21623XXSP,2013-01-18 10:36:00,
2013-01-18 05:38:00,19.6,12.2,29.98,NNW,337,0.0,0.0,73,0.00,,,0.00,WUHU21623XXSP,2013-01-18 10:38:00,
2013-01-18 05:40:00,19.6,11.9,29.99,NNW,337,0.0,0.0,72,0.00,,,0.00,WUHU21623XXSP,2013-01-18 10:40:00,
2013-01-18 05:41:00,19.6,11.9,29.99,NNW,337,0.0,0.0,72,0.00,,,0.00,WUHU21623XXSP,2013-01-18 10:41:00,
2013-01-18 05:43:00,19.6,11.9,29.99,NNW,337,0.0,0.0,72,0.00,,,0.00,WUHU21623XXSP,2013-01-18 10:43:00,
2013-01-18 05:45:00,19.8,12.1,29.99,NNW,337,0.0,0.0,72,0.00,,,0.00,WUHU21623XXSP,2013-01-18 10:45:00,
2013-01-18 05:46:00,19.8,12.1,29.99,NNW,337,0.0,0.0,72,0.00,,,0.00,WUHU21623XXSP,2013-01-18 10:46:00,
2013-01-18 05:48:00,19.8,12.1,29.99,NNW,337,0.0,0.0,72,0.00,,,0.00,WUHU21623XXSP,2013-01-18 10:48:00,
2013-01-18 05:50:00,19.8,12.1,29.99,NNW,337,0.0,0.0,72,0.00,,,0.00,WUHU21623XXSP,2013-01-18 10:50:00,
2013-01-18 05:51:00,19.8,12.1,29.99,North,0,0.0,0.0,72,0.00,,,0.00,WUHU21623XXSP,2013-01-18 10:51:00,
2013-01-18 05:53:00,19.8,12.1,29.98,North,0,0.0,0.0,72,0.00,,,0.00,WUHU21623XXSP,2013-01-18 10:53:00,
2013-01-18 05:55:00,19.8,12.1,29.99,NNE,22,0.0,0.0,72,0.00,,,0.00,WUHU21623XXSP,2013-01-18 10:55:00,
2013-01-18 05:56:00,19.8,12.1,29.99,NNE,22,0.0,0.0,72,0.00,,,0.00,WUHU21623XXSP,2013-01-18 10:56:00,
2013-01-18 05:58:00,19.8,12.1,29.99,NNE,22,0.0,0.0,72,0.00,,,0.00,WUHU21623XXSP,2013-01-18 10:58:00,
2013-01-18 06:01:00,19.8,12.1,29.99,NNE,22,0.0,0.0,72,0.00,,,0.00,WUHU21623XXSP,2013-01-18 11:01:00,
2013-01-18 06:03:00,19.8,12.1,29.99,NNE,22,0.0,0.0,73,0.00,,,0.00,WUHU21623XXSP,2013-01-18 11:03:00,
2013-01-18 06:06:00,19.8,12.1,29.99,NNE,22,0.0,0.0,72,0.00,,,0.00,WUHU21623XXSP,2013-01-18 11:06:00,
2013-01-18 06:09:00,19.6,11.9,29.99,NNE,22,0.0,0.0,72,0.00,,,0.00,WUHU21623XXSP,2013-01-18 11:09:00,
2013-01-18 06:11:00,19.6,11.9,29.99,NNE,22,0.0,0.0,72,0.00,,,0.00,WUHU21623XXSP,2013-01-18 11:11:00,
2013-01-18 06:14:00,19.6,11.9,29.99,NNE,22,0.0,0.0,72,0.00,,,0.00,WUHU21623XXSP,2013-01-18 11:14:00,
2013-01-18 06:16:00,19.6,11.6,29.99,NNE,22,0.0,0.0,71,0.00,,,0.00,WUHU21623XXSP,2013-01-18 11:16:00,
2013-01-18 06:19:00,19.6,11.6,29.99,NNE,22,0.0,0.0,71,0.00,,,0.00,WUHU21623XXSP,2013-01-18 11:19:00,
2013-01-18 06:21:00,19.6,11.6,29.98,NNE,22,0.0,0.0,71,0.00,,,0.00,WUHU21623XXSP,2013-01-18 11:21:00,
2013-01-18 06:24:00,19.6,11.6,29.98,NNE,22,0.0,0.0,71,0.00,,,0.00,WUHU21623XXSP,2013-01-18 11:24:00,
2013-01-18 06:26:00,19.6,11.6,29.98,NNE,22,0.0,0.0,71,0.00,,,0.00,WUHU21623XXSP,2013-01-18 11:26:00,
2013-01-18 06:27:00,19.6,11.6,29.98,NNE,22,0.0,0.0,71,0.00,,,0.00,WUHU21623XXSP,2013-01-18 11:27:00,
2013-01-18 06:29:00,19.6,11.6,29.98,NNE,22,0.0,0.0,71,0.00,,,0.00,WUHU21623XXSP,2013-01-18 11:29:00,
2013-01-18 06:31:00,19.4,11.6,29.98,NNE,22,0.0,0.0,71,0.00,,,0.00,WUHU21623XXSP,2013-01-18 11:31:00,
2013-01-18 06:32:00,19.4,11.6,29.98,NNE,22,0.0,0.0,71,0.00,,,0.00,WUHU21623XXSP,2013-01-18 11:32:00,
2013-01-18 06:34:00,19.4,11.4,29.98,NNE,22,0.0,0.0,71,0.00,,,0.00,WUHU21623XXSP,2013-01-18 11:34:00,
2013-01-18 06:36:00,19.4,11.4,29.98,NNE,22,0.0,0.0,71,0.00,,,0.00,WUHU21623XXSP,2013-01-18 11:36:00,
2013-01-18 06:37:00,19.4,11.4,29.98,NNE,22,0.0,0.0,71,0.00,,,0.00,WUHU21623XXSP,2013-01-18 11:37:00,
2013-01-18 06:39:00,19.2,11.4,29.98,NNE,22,0.0,0.0,71,0.00,,,0.00,WUHU21623XXSP,2013-01-18 11:39:00,
2013-01-18 06:41:00,19.2,11.2,29.98,NNE,22,0.0,0.0,71,0.00,,,0.00,WUHU21623XXSP,2013-01-18 11:41:00,
2013-01-18 06:42:00,19.2,11.2,29.98,NNE,22,0.0,0.0,71,0.00,,,0.00,WUHU21623XXSP,2013-01-18 11:42:00,
2013-01-18 06:44:00,19.2,11.2,29.99,NNE,22,0.0,0.0,71,0.00,,,0.00,WUHU21623XXSP,2013-01-18 11:44:00,
2013-01-18 06:47:00,19.0,11.1,29.99,NNE,22,0.0,0.0,71,0.00,,,0.00,WUHU21623XXSP,2013-01-18 11:47:00,
2013-01-18 06:49:00,19.0,11.1,29.99,NNE,22,0.0,0.0,71,0.00,,,0.00,WUHU21623XXSP,2013-01-18 11:49:00,
2013-01-18 06:52:00,18.9,10.9,29.99,NNE,22,0.0,0.0,71,0.00,,,0.00,WUHU21623XXSP,2013-01-18 11:52:00,
2013-01-18 06:54:00,18.7,10.9,29.99,NNE,22,0.0,0.0,71,0.00,,,0.00,WUHU21623XXSP,2013-01-18 11:54:00,
2013-01-18 06:57:00,18.5,10.6,30.00,NNE,22,0.0,0.0,71,0.00,,,0.00,WUHU21623XXSP,2013-01-18 11:57:00,
2013-01-18 06:58:00,18.5,10.6,30.00,NNE,22,0.0,0.0,71,0.00,,,0.00,WUHU21623XXSP,2013-01-18 11:58:00,
2013-01-18 06:59:00,18.5,10.6,30.00,NNE,22,0.0,0.0,71,0.00,,,0.00,WUHU21623XXSP,2013-01-18 11:59:00,
2013-01-18 07:02:00,18.5,10.6,30.00,NNE,22,0.0,0.0,71,0.00,,,0.00,WUHU21623XXSP,2013-01-18 12:02:00,
2013-01-18 07:03:00,18.5,10.6,30.00,NNE,22,0.0,0.0,71,0.00,,,0.00,WUHU21623XXSP,2013-01-18 12:03:00,
2013-01-18 07:04:00,18.3,10.6,30.00,NNE,22,0.0,0.0,72,0.00,,,0.00,WUHU21623XXSP,2013-01-18 12:04:00,
2013-01-18 07:07:00,18.3,10.7,30.00,NNE,22,0.0,0.0,72,0.00,,,0.00,WUHU21623XXSP,2013-01-18 12:07:00,
2013-01-18 07:08:00,18.3,10.7,30.00,NNE,22,0.0,0.0,72,0.00,,,0.00,WUHU21623XXSP,2013-01-18 12:08:00,
2013-01-18 07:09:00,18.3,10.7,30.00,NNE,22,0.0,0.0,72,0.00,,,0.00,WUHU21623XXSP,2013-01-18 12:09:00,
2013-01-18 07:12:00,18.3,10.7,30.00,NNE,22,0.0,0.0,72,0.00,,,0.00,WUHU21623XXSP,2013-01-18 12:12:00,
2013-01-18 07:13:00,18.3,10.7,30.00,NNE,22,0.0,0.0,72,0.00,,,0.00,WUHU21623XXSP,2013-01-18 12:13:00,
2013-01-18 07:14:00,18.1,10.6,30.00,NNE,22,0.0,0.0,72,0.00,,,0.00,WUHU21623XXSP,2013-01-18 12:14:00,
2013-01-18 07:17:00,18.1,10.6,30.00,NNE,22,0.0,0.0,72,0.00,,,0.00,WUHU21623XXSP,2013-01-18 12:17:00,
2013-01-18 07:18:00,18.0,10.4,30.00,NNE,22,0.0,0.0,72,0.00,,,0.00,WUHU21623XXSP,2013-01-18 12:18:00,
2013-01-18 07:19:00,18.0,10.4,30.00,NNE,22,0.0,0.0,72,0.00,,,0.00,WUHU21623XXSP,2013-01-18 12:19:00,
2013-01-18 07:22:00,17.8,10.2,30.00,NNE,22,0.0,0.0,72,0.00,,,0.00,WUHU21623XXSP,2013-01-18 12:22:00,
2013-01-18 07:23:00,17.8,10.2,29.99,NNE,22,0.0,0.0,72,0.00,,,0.00,WUHU21623XXSP,2013-01-18 12:23:00,
2013-01-18 07:24:00,17.8,10.2,29.99,NNE,22,0.0,0.0,72,0.00,,,0.00,WUHU21623XXSP,2013-01-18 12:24:00,
2013-01-18 07:27:00,17.4,9.9,29.99,NNE,22,0.0,0.0,72,0.00,,,0.00,WUHU21623XXSP,2013-01-18 12:27:00,
2013-01-18 07:28:00,17.4,9.9,29.99,NNE,22,0.0,0.0,72,0.00,,,0.00,WUHU21623XXSP,2013-01-18 12:28:00,
2013-01-18 07:29:00,17.4,9.9,29.99,NNE,22,0.0,0.0,72,0.00,,,0.00,WUHU21623XXSP,2013-01-18 12:29:00,
2013-01-18 07:30:00,17.4,9.9,29.99,NNE,22,0.0,0.0,72,0.00,,,0.00,WUHU21623XXSP,2013-01-18 12:30:00,
2013-01-18 07:33:00,17.2,9.7,29.99,NNE,22,0.0,0.0,72,0.00,,,0.00,WUHU21623XXSP,2013-01-18 12:33:00,
2013-01-18 07:34:00,17.1,9.5,30.00,NNE,22,0.0,0.0,72,0.00,,,0.00,WUHU21623XXSP,2013-01-18 12:34:00,
2013-01-18 07:35:00,17.1,9.5,30.00,NNE,22,0.0,0.0,72,0.00,,,0.00,WUHU21623XXSP,2013-01-18 12:35:00,
2013-01-18 07:38:00,16.9,9.4,30.00,NNE,22,0.0,0.0,72,0.00,,,0.00,WUHU21623XXSP,2013-01-18 12:38:00,
2013-01-18 07:39:00,16.9,9.4,30.00,NNE,22,0.0,0.0,72,0.00,,,0.00,WUHU21623XXSP,2013-01-18 12:39:00,
2013-01-18 07:40:00,16.7,9.2,30.00,NNE,22,0.0,0.0,72,0.00,,,0.00,WUHU21623XXSP,2013-01-18 12:40:00,
2013-01-18 07:43:00,16.5,9.0,30.00,NNE,22,0.0,0.0,72,0.00,,,0.00,WUHU21623XXSP,2013-01-18 12:43:00,
2013-01-18 07:44:00,16.5,9.0,29.99,NNE,22,0.0,0.0,72,0.00,,,0.00,WUHU21623XXSP,2013-01-18 12:44:00,
2013-01-18 07:45:00,16.5,9.0,29.99,NNE,22,0.0,0.0,72,0.00,,,0.00,WUHU21623XXSP,2013-01-18 12:45:00,
2013-01-18 07:49:00,16.3,8.8,30.00,NNE,22,0.0,0.0,72,0.00,,,0.00,WUHU21623XXSP,2013-01-18 12:49:00,
2013-01-18 07:50:00,16.3,8.8,30.00,NNE,22,0.0,0.0,72,0.00,,,0.00,WUHU21623XXSP,2013-01-18 12:50:00,
2013-01-18 07:54:00,16.3,8.8,30.00,NNE,22,0.0,0.0,72,0.00,,,0.00,WUHU21623XXSP,2013-01-18 12:54:00,
2013-01-18 07:55:00,16.2,8.7,30.00,NNE,22,0.0,0.0,72,0.00,,,0.00,WUHU21623XXSP,2013-01-18 12:55:00,
2013-01-18 07:59:00,16.2,8.7,30.00,NNE,22,0.0,0.0,72,0.00,,,0.00,WUHU21623XXSP,2013-01-18 12:59:00,
2013-01-18 08:00:00,16.2,8.7,30.00,NNE,22,0.0,0.0,72,0.00,,,0.00,WUHU21623XXSP,2013-01-18 13:00:00,
2013-01-18 08:04:00,16.3,9.1,30.00,NNE,22,0.0,0.0,73,0.00,,,0.00,WUHU21623XXSP,2013-01-18 13:04:00,
2013-01-18 08:05:00,16.3,9.1,30.00,NNE,22,0.0,0.0,73,0.00,,,0.00,WUHU21623XXSP,2013-01-18 13:05:00,
2013-01-18 08:09:00,16.2,9.0,29.99,NNE,22,0.0,0.0,73,0.00,,,0.00,WUHU21623XXSP,2013-01-18 13:09:00,
2013-01-18 08:10:00,16.3,9.0,29.99,NNE,22,0.0,0.0,73,0.00,,,0.00,WUHU21623XXSP,2013-01-18 13:10:00,
2013-01-18 08:14:00,16.3,9.1,29.99,NNE,22,0.0,0.0,73,0.00,,,0.00,WUHU21623XXSP,2013-01-18 13:14:00,
2013-01-18 08:15:00,16.3,9.1,29.99,NNE,22,0.0,0.0,73,0.00,,,0.00,WUHU21623XXSP,2013-01-18 13:15:00,
2013-01-18 08:16:00,16.3,9.1,29.99,NNE,22,0.0,0.0,73,0.00,,,0.00,WUHU21623XXSP,2013-01-18 13:16:00,
2013-01-18 08:19:00,16.5,9.1,30.00,NNE,22,0.0,0.0,74,0.00,,,0.00,WUHU21623XXSP,2013-01-18 13:19:00,
2013-01-18 08:20:00,16.5,9.1,30.00,NNE,22,0.0,0.0,74,0.00,,,0.00,WUHU21623XXSP,2013-01-18 13:20:00,
2013-01-18 08:21:00,16.7,9.8,29.99,NNE,22,0.0,0.0,74,0.00,,,0.00,WUHU21623XXSP,2013-01-18 13:21:00,
2013-01-18 08:25:00,16.9,9.9,30.00,NNE,22,0.0,0.0,74,0.00,,,0.00,WUHU21623XXSP,2013-01-18 13:25:00,
2013-01-18 08:26:00,16.9,9.9,30.00,NNE,22,0.0,0.0,74,0.00,,,0.00,WUHU21623XXSP,2013-01-18 13:26:00,
2013-01-18 08:30:00,16.9,9.9,30.00,NNE,22,0.0,0.0,74,0.00,,,0.00,WUHU21623XXSP,2013-01-18 13:30:00,
2013-01-18 08:31:00,17.2,10.3,30.00,NNE,22,0.0,0.0,74,0.00,,,0.00,WUHU21623XXSP,2013-01-18 13:31:00,
2013-01-18 08:35:00,17.2,10.3,30.00,NNE,22,0.0,0.0,74,0.00,,,0.00,WUHU21623XXSP,2013-01-18 13:35:00,
2013-01-18 08:36:00,17.2,10.3,30.00,NNE,22,0.0,0.0,74,0.00,,,0.00,WUHU21623XXSP,2013-01-18 13:36:00,
2013-01-18 08:40:00,17.4,10.8,30.00,NNE,22,0.0,0.0,75,0.00,,,0.00,WUHU21623XXSP,2013-01-18 13:40:00,
2013-01-18 08:41:00,17.4,10.8,30.00,NNE,22,0.0,0.0,75,0.00,,,0.00,WUHU21623XXSP,2013-01-18 13:41:00,
2013-01-18 08:45:00,17.4,10.8,30.00,ENE,67,0.0,0.0,75,0.00,,,0.00,WUHU21623XXSP,2013-01-18 13:45:00,
2013-01-18 08:46:00,17.4,10.8,30.00,ENE,67,0.0,0.0,75,0.00,,,0.00,WUHU21623XXSP,2013-01-18 13:46:00,
2013-01-18 08:50:00,18.0,11.3,30.00,SE,135,0.0,0.0,75,0.00,,,0.00,WUHU21623XXSP,2013-01-18 13:50:00,
2013-01-18 08:51:00,18.0,11.3,30.00,SE,135,0.0,0.0,75,0.00,,,0.00,WUHU21623XXSP,2013-01-18 13:51:00,
2013-01-18 08:55:00,18.3,11.6,30.00,SE,135,0.0,0.0,75,0.00,,,0.00,WUHU21623XXSP,2013-01-18 13:55:00,
2013-01-18 08:56:00,18.3,11.6,30.00,SE,135,0.0,0.0,75,0.00,,,0.00,WUHU21623XXSP,2013-01-18 13:56:00,
2013-01-18 08:57:00,18.3,11.6,30.00,SE,135,0.0,0.0,75,0.00,,,0.00,WUHU21623XXSP,2013-01-18 13:57:00,
2013-01-18 09:00:00,18.5,11.5,30.00,SE,135,0.0,0.0,74,0.00,,,0.00,WUHU21623XXSP,2013-01-18 14:00:00,
2013-01-18 09:01:00,18.5,11.5,30.00,SE,135,0.0,0.0,74,0.00,,,0.00,WUHU21623XXSP,2013-01-18 14:01:00,
2013-01-18 09:02:00,18.7,11.7,30.00,SE,135,0.0,0.0,74,0.00,,,0.00,WUHU21623XXSP,2013-01-18 14:02:00,
2013-01-18 09:06:00,19.2,12.2,30.00,SE,135,0.0,0.0,74,0.00,,,0.00,WUHU21623XXSP,2013-01-18 14:06:00,
2013-01-18 09:08:00,19.4,12.3,30.00,SE,135,0.0,0.0,74,0.00,,,0.00,WUHU21623XXSP,2013-01-18 14:08:00,
2013-01-18 09:11:00,19.6,12.5,30.00,SE,135,0.0,0.0,74,0.00,,,0.00,WUHU21623XXSP,2013-01-18 14:11:00,
2013-01-18 09:13:00,19.8,12.7,30.00,SE,135,0.0,0.0,74,0.00,,,0.00,WUHU21623XXSP,2013-01-18 14:13:00,
2013-01-18 09:16:00,20.1,12.8,30.00,SE,135,0.0,0.0,73,0.00,,,0.00,WUHU21623XXSP,2013-01-18 14:16:00,
2013-01-18 09:18:00,20.1,12.8,30.00,SE,135,0.0,0.0,73,0.00,,,0.00,WUHU21623XXSP,2013-01-18 14:18:00,
2013-01-18 09:21:00,20.8,13.5,30.00,SE,135,0.0,0.0,73,0.00,,,0.00,WUHU21623XXSP,2013-01-18 14:21:00,
2013-01-18 09:23:00,21.0,13.7,30.00,SE,135,1.1,1.1,73,0.00,,,0.00,WUHU21623XXSP,2013-01-18 14:23:00,
2013-01-18 09:26:00,21.0,13.4,30.00,SE,135,1.3,1.3,72,0.00,,,0.00,WUHU21623XXSP,2013-01-18 14:26:00,
2013-01-18 09:27:00,21.4,13.7,30.00,ESE,112,0.0,1.3,72,0.00,,,0.00,WUHU21623XXSP,2013-01-18 14:27:00,
2013-01-18 09:28:00,21.4,13.7,30.00,ESE,112,0.0,1.3,72,0.00,,,0.00,WUHU21623XXSP,2013-01-18 14:28:00,
2013-01-18 09:31:00,21.6,13.9,30.01,SE,135,0.0,1.3,72,0.00,,,0.00,WUHU21623XXSP,2013-01-18 14:31:00,
2013-01-18 09:32:00,21.6,13.9,30.01,SE,135,0.0,1.3,72,0.00,,,0.00,WUHU21623XXSP,2013-01-18 14:32:00,
2013-01-18 09:33:00,21.7,14.1,30.00,SE,135,4.3,4.3,72,0.00,,,0.00,WUHU21623XXSP,2013-01-18 14:33:00,
2013-01-18 09:36:00,21.9,14.3,30.00,SE,135,6.0,6.0,72,0.00,,,0.00,WUHU21623XXSP,2013-01-18 14:36:00,
2013-01-18 09:37:00,21.9,14.3,30.00,SE,135,6.0,6.0,72,0.00,,,0.00,WUHU21623XXSP,2013-01-18 14:37:00,
2013-01-18 09:38:00,21.9,14.3,30.00,SE,135,3.6,6.0,72,0.00,,,0.00,WUHU21623XXSP,2013-01-18 14:38:00,
2013-01-18 09:41:00,22.1,14.1,30.00,SE,135,0.0,6.0,71,0.00,,,0.00,WUHU21623XXSP,2013-01-18 14:41:00,
2013-01-18 09:42:00,22.1,14.1,30.00,SE,135,0.0,6.0,71,0.00,,,0.00,WUHU21623XXSP,2013-01-18 14:42:00,
2013-01-18 09:43:00,22.5,14.5,30.00,SE,135,0.0,6.0,71,0.00,,,0.00,WUHU21623XXSP,2013-01-18 14:43:00,
2013-01-18 09:47:00,22.8,14.8,30.00,SE,135,4.5,4.5,71,0.00,,,0.00,WUHU21623XXSP,2013-01-18 14:47:00,
2013-01-18 09:48:00,22.8,14.8,30.00,SE,135,7.8,7.8,71,0.00,,,0.00,WUHU21623XXSP,2013-01-18 14:48:00,
2013-01-18 09:52:00,23.2,15.2,30.00,SE,135,5.4,7.8,71,0.00,,,0.00,WUHU21623XXSP,2013-01-18 14:52:00,
2013-01-18 09:53:00,23.4,15.3,30.00,SE,135,4.3,7.8,71,0.00,,,0.00,WUHU21623XXSP,2013-01-18 14:53:00,
2013-01-18 09:57:00,23.7,15.7,30.00,SSE,157,4.9,7.8,71,0.00,,,0.00,WUHU21623XXSP,2013-01-18 14:57:00,
2013-01-18 09:58:00,23.7,15.7,30.00,SSE,157,4.9,7.6,71,0.00,,,0.00,WUHU21623XXSP,2013-01-18 14:58:00,
2013-01-18 10:02:00,24.1,16.0,30.00,SSE,157,9.4,9.4,71,0.00,,,0.00,WUHU21623XXSP,2013-01-18 15:02:00,
2013-01-18 10:03:00,24.4,16.3,30.00,SSE,157,5.6,9.4,71,0.00,,,0.00,WUHU21623XXSP,2013-01-18 15:03:00,
2013-01-18 10:04:00,24.4,16.3,30.00,SSE,157,5.6,9.4,71,0.00,,,0.00,WUHU21623XXSP,2013-01-18 15:04:00,
2013-01-18 10:07:00,24.6,16.8,30.00,SE,135,6.5,9.4,72,0.00,,,0.00,WUHU21623XXSP,2013-01-18 15:07:00,
2013-01-18 10:08:00,24.8,17.0,30.00,SSE,157,7.6,9.4,72,0.00,,,0.00,WUHU21623XXSP,2013-01-18 15:08:00,
2013-01-18 10:09:00,24.8,17.0,30.00,SSE,157,7.6,9.4,72,0.00,,,0.00,WUHU21623XXSP,2013-01-18 15:09:00,
2013-01-18 10:12:00,25.3,17.5,30.00,SSE,157,7.6,8.1,72,0.00,,,0.00,WUHU21623XXSP,2013-01-18 15:12:00,
2013-01-18 10:13:00,25.3,17.5,30.00,SSE,157,7.6,8.1,72,0.00,,,0.00,WUHU21623XXSP,2013-01-18 15:13:00,
2013-01-18 10:14:00,25.7,17.9,29.99,South,180,8.9,8.9,72,0.00,,,0.00,WUHU21623XXSP,2013-01-18 15:14:00,
2013-01-18 10:17:00,26.1,18.2,30.00,SSE,157,6.9,8.9,72,0.00,,,0.00,WUHU21623XXSP,2013-01-18 15:17:00,
2013-01-18 10:18:00,26.1,18.2,30.00,SSE,157,6.9,8.9,72,0.00,,,0.00,WUHU21623XXSP,2013-01-18 15:18:00,
2013-01-18 10:19:00,26.4,18.2,29.99,SSE,157,6.9,8.9,72,0.00,,,0.00,WUHU21623XXSP,2013-01-18 15:19:00,
2013-01-18 10:22:00,27.0,19.1,29.99,SSE,157,10.1,11.6,72,0.00,,,0.00,WUHU21623XXSP,2013-01-18 15:22:00,
2013-01-18 10:23:00,27.0,19.1,29.99,SSE,157,10.1,11.6,72,0.00,,,0.00,WUHU21623XXSP,2013-01-18 15:23:00,
2013-01-18 10:24:00,27.0,19.1,29.99,SSE,157,10.1,11.6,72,0.00,,,0.00,WUHU21623XXSP,2013-01-18 15:24:00,
2013-01-18 10:27:00,27.3,19.2,29.99,South,180,11.2,11.6,71,0.00,,,0.00,WUHU21623XXSP,2013-01-18 15:27:00,
2013-01-18 10:28:00,27.3,19.2,29.99,South,180,11.2,11.6,71,0.00,,,0.00,WUHU21623XXSP,2013-01-18 15:28:00,
2013-01-18 10:29:00,27.3,19.2,29.99,South,180,11.2,11.6,71,0.00,,,0.00,WUHU21623XXSP,2013-01-18 15:29:00,
2013-01-18 10:33:00,27.7,19.5,29.99,South,180,8.7,11.2,71,0.00,,,0.00,WUHU21623XXSP,2013-01-18 15:33:00,
2013-01-18 10:34:00,27.7,19.5,29.99,South,180,8.1,11.2,71,0.00,,,0.00,WUHU21623XXSP,2013-01-18 15:34:00,
2013-01-18 10:38:00,28.0,19.9,29.99,South,180,11.9,11.9,71,0.00,,,0.00,WUHU21623XXSP,2013-01-18 15:38:00,
2013-01-18 10:39:00,28.0,19.9,29.99,South,180,10.5,11.9,71,0.00,,,0.00,WUHU21623XXSP,2013-01-18 15:39:00,
2013-01-18 10:43:00,28.2,19.8,29.99,South,180,10.7,11.9,70,0.00,,,0.00,WUHU21623XXSP,2013-01-18 15:43:00,
2013-01-18 10:44:00,28.2,19.8,29.99,SSW,202,9.2,11.9,70,0.00,,,0.00,WUHU21623XXSP,2013-01-18 15:44:00,
2013-01-18 10:48:00,28.4,19.9,29.99,South,180,8.3,10.7,70,0.00,,,0.00,WUHU21623XXSP,2013-01-18 15:48:00,
2013-01-18 10:49:00,28.6,20.1,29.98,SSW,202,9.8,10.7,70,0.00,,,0.00,WUHU21623XXSP,2013-01-18 15:49:00,
2013-01-18 10:53:00,28.8,19.9,29.99,SSW,202,8.9,9.8,69,0.00,,,0.00,WUHU21623XXSP,2013-01-18 15:53:00,
2013-01-18 10:54:00,28.8,19.9,29.99,SSW,202,8.9,9.8,69,0.00,,,0.00,WUHU21623XXSP,2013-01-18 15:54:00,
2013-01-18 10:55:00,28.8,19.9,29.98,South,180,10.5,10.5,69,0.00,,,0.00,WUHU21623XXSP,2013-01-18 15:55:00,
2013-01-18 10:58:00,28.8,19.9,29.98,South,180,8.5,10.5,69,0.00,,,0.00,WUHU21623XXSP,2013-01-18 15:58:00,
2013-01-18 10:59:00,28.9,19.9,29.98,South,180,8.5,10.5,69,0.00,,,0.00,WUHU21623XXSP,2013-01-18 15:59:00,
2013-01-18 11:00:00,28.9,19.9,29.98,South,180,8.5,10.5,69,0.00,,,0.00,WUHU21623XXSP,2013-01-18 16:00:00,
2013-01-18 11:03:00,29.1,19.9,29.98,SSW,202,13.6,13.6,68,0.00,,,0.00,WUHU21623XXSP,2013-01-18 16:03:00,
2013-01-18 11:04:00,29.1,19.9,29.98,SSW,202,13.6,13.6,68,0.00,,,0.00,WUHU21623XXSP,2013-01-18 16:04:00,
2013-01-18 11:05:00,29.1,19.9,29.99,South,180,7.6,13.6,68,0.00,,,0.00,WUHU21623XXSP,2013-01-18 16:05:00,
2013-01-18 11:08:00,29.1,19.9,29.98,SSW,202,7.4,13.6,68,0.00,,,0.00,WUHU21623XXSP,2013-01-18 16:08:00,
2013-01-18 11:09:00,29.1,19.9,29.98,SSW,202,7.4,13.6,68,0.00,,,0.00,WUHU21623XXSP,2013-01-18 16:09:00,
2013-01-18 11:10:00,29.1,19.9,29.98,South,180,12.3,13.6,68,0.00,,,0.00,WUHU21623XXSP,2013-01-18 16:10:00,
2013-01-18 11:13:00,29.1,19.5,29.98,South,180,9.2,12.3,67,0.00,,,0.00,WUHU21623XXSP,2013-01-18 16:13:00,
2013-01-18 11:14:00,29.1,19.5,29.98,SSW,202,4.3,12.3,67,0.00,,,0.00,WUHU21623XXSP,2013-01-18 16:14:00,
2013-01-18 11:15:00,29.1,19.5,29.98,SSW,202,4.3,12.3,67,0.00,,,0.00,WUHU21623XXSP,2013-01-18 16:15:00,
2013-01-18 11:18:00,29.1,19.5,29.98,South,180,13.9,13.9,67,0.00,,,0.00,WUHU21623XXSP,2013-01-18 16:18:00,
2013-01-18 11:19:00,29.1,19.5,29.98,South,180,13.9,13.9,67,0.00,,,0.00,WUHU21623XXSP,2013-01-18 16:19:00,
2013-01-18 11:20:00,29.1,19.5,29.98,South,180,13.9,13.9,67,0.00,,,0.00,WUHU21623XXSP,2013-01-18 16:20:00,
2013-01-18 11:21:00,29.1,19.5,29.98,SW,225,10.7,13.9,67,0.00,,,0.00,WUHU21623XXSP,2013-01-18 16:21:00,
2013-01-18 11:23:00,28.9,19.3,29.98,SSW,202,8.7,13.9,67,0.00,,,0.00,WUHU21623XXSP,2013-01-18 16:23:00,
2013-01-18 11:24:00,28.9,19.3,29.98,SSW,202,8.7,13.9,67,0.00,,,0.00,WUHU21623XXSP,2013-01-18 16:24:00,
2013-01-18 11:25:00,28.9,19.3,29.97,SSW,202,10.1,13.9,67,0.00,,,0.00,WUHU21623XXSP,2013-01-18 16:25:00,
2013-01-18 11:26:00,28.9,19.3,29.97,SSW,202,10.1,13.9,67,0.00,,,0.00,WUHU21623XXSP,2013-01-18 16:26:00,
2013-01-18 11:29:00,28.8,19.2,29.97,SSW,202,8.5,11.0,67,0.00,,,0.00,WUHU21623XXSP,2013-01-18 16:29:00,
2013-01-18 11:30:00,28.8,19.2,29.97,SSW,202,8.5,11.0,67,0.00,,,0.00,WUHU21623XXSP,2013-01-18 16:30:00,
2013-01-18 11:31:00,28.9,19.3,29.97,South,180,8.3,11.0,67,0.00,,,0.00,WUHU21623XXSP,2013-01-18 16:31:00,
2013-01-18 11:34:00,28.8,19.2,29.97,SSW,202,8.9,11.0,67,0.00,,,0.00,WUHU21623XXSP,2013-01-18 16:34:00,
2013-01-18 11:36:00,28.8,19.2,29.97,SSW,202,8.9,11.0,67,0.00,,,0.00,WUHU21623XXSP,2013-01-18 16:36:00,
2013-01-18 11:37:00,28.8,19.2,29.97,SSW,202,8.9,8.9,67,0.00,,,0.00,WUHU21623XXSP,2013-01-18 16:37:00,
2013-01-18 11:39:00,28.6,19.0,29.96,SSW,202,11.4,11.4,67,0.00,,,0.00,WUHU21623XXSP,2013-01-18 16:39:00,
2013-01-18 11:40:00,28.8,19.2,29.96,South,180,7.6,11.4,67,0.00,,,0.00,WUHU21623XXSP,2013-01-18 16:40:00,
2013-01-18 11:41:00,28.8,19.2,29.96,South,180,7.6,11.4,67,0.00,,,0.00,WUHU21623XXSP,2013-01-18 16:41:00,
2013-01-18 11:42:00,28.9,19.3,29.96,SW,225,8.7,11.4,67,0.00,,,0.00,WUHU21623XXSP,2013-01-18 16:42:00,
2013-01-18 11:44:00,29.1,19.5,29.96,SSW,202,6.9,11.4,67,0.00,,,0.00,WUHU21623XXSP,2013-01-18 16:44:00,
2013-01-18 11:45:00,29.1,19.5,29.96,SSW,202,6.9,11.4,67,0.00,,,0.00,WUHU21623XXSP,2013-01-18 16:45:00,
2013-01-18 11:46:00,29.1,19.5,29.96,South,180,9.8,11.4,67,0.00,,,0.00,WUHU21623XXSP,2013-01-18 16:46:00,
2013-01-18 11:47:00,29.1,19.5,29.96,South,180,9.8,11.4,67,0.00,,,0.00,WUHU21623XXSP,2013-01-18 16:47:00,
2013-01-18 11:50:00,29.3,19.3,29.95,SSW,202,8.7,9.8,66,0.00,,,0.00,WUHU21623XXSP,2013-01-18 16:50:00,
2013-01-18 11:52:00,29.5,19.5,29.95,SSW,202,9.6,9.8,66,0.00,,,0.00,WUHU21623XXSP,2013-01-18 16:52:00,
2013-01-18 11:53:00,29.5,19.5,29.95,South,180,11.2,11.2,66,0.00,,,0.00,WUHU21623XXSP,2013-01-18 16:53:00,
2013-01-18 11:55:00,29.7,19.6,29.95,South,180,7.2,11.2,66,0.00,,,0.00,WUHU21623XXSP,2013-01-18 16:55:00,
2013-01-18 11:57:00,29.5,19.5,29.95,South,180,11.4,11.4,66,0.00,,,0.00,WUHU21623XXSP,2013-01-18 16:57:00,
2013-01-18 11:58:00,29.5,19.5,29.95,South,180,11.4,11.4,66,0.00,,,0.00,WUHU21623XXSP,2013-01-18 16:58:00,
2013-01-18 12:00:00,29.5,19.5,29.94,SSW,202,12.5,12.5,66,0.00,,,0.00,WUHU21623XXSP,2013-01-18 17:00:00,
2013-01-18 12:01:00,29.5,19.5,29.94,SSW,202,9.8,12.5,66,0.00,,,0.00,WUHU21623XXSP,2013-01-18 17:01:00,
2013-01-18 12:03:00,29.5,19.5,29.94,SSW,202,6.0,12.5,66,0.00,,,0.00,WUHU21623XXSP,2013-01-18 17:03:00,
2013-01-18 12:05:00,29.5,19.5,29.94,SSW,202,6.0,12.5,66,0.00,,,0.00,WUHU21623XXSP,2013-01-18 17:05:00,
2013-01-18 12:06:00,29.3,19.3,29.94,SW,225,10.7,12.5,66,0.00,,,0.00,WUHU21623XXSP,2013-01-18 17:06:00,
2013-01-18 12:08:00,29.3,19.3,29.94,South,180,11.9,12.5,66,0.00,,,0.00,WUHU21623XXSP,2013-01-18 17:08:00,
2013-01-18 12:10:00,29.1,19.1,29.93,SSW,202,11.2,11.9,66,0.00,,,0.00,WUHU21623XXSP,2013-01-18 17:10:00,
2013-01-18 12:11:00,29.1,19.1,29.93,SSW,202,11.2,11.9,66,0.00,,,0.00,WUHU21623XXSP,2013-01-18 17:11:00,
2013-01-18 12:13:00,29.3,19.3,29.93,SSW,202,6.5,11.9,66,0.00,,,0.00,WUHU21623XXSP,2013-01-18 17:13:00,
2013-01-18 12:15:00,29.3,19.3,29.93,SSW,202,8.7,11.9,66,0.00,,,0.00,WUHU21623XXSP,2013-01-18 17:15:00,
2013-01-18 12:16:00,29.5,19.5,29.92,SSW,202,9.6,11.9,66,0.00,,,0.00,WUHU21623XXSP,2013-01-18 17:16:00,
2013-01-18 12:19:00,29.5,19.1,29.92,South,180,13.0,13.0,65,0.00,,,0.00,WUHU21623XXSP,2013-01-18 17:19:00,
2013-01-18 12:20:00,29.5,19.1,29.92,SW,225,7.8,13.0,65,0.00,,,0.00,WUHU21623XXSP,2013-01-18 17:20:00,
2013-01-18 12:21:00,29.5,19.1,29.92,SW,225,7.8,13.0,65,0.00,,,0.00,WUHU21623XXSP,2013-01-18 17:21:00,
2013-01-18 12:24:00,29.7,19.1,29.92,SW,225,7.8,13.0,66,0.00,,,0.00,WUHU21623XXSP,2013-01-18 17:24:00,
2013-01-18 12:25:00,29.8,19.8,29.92,SW,225,2.9,13.0,66,0.00,,,0.00,WUHU21623XXSP,2013-01-18 17:25:00,
2013-01-18 12:27:00,30.0,19.6,29.92,SSW,202,6.7,13.0,65,0.00,,,0.00,WUHU21623XXSP,2013-01-18 17:27:00,
2013-01-18 12:29:00,30.0,19.6,29.92,SSW,202,8.1,8.1,65,0.00,,,0.00,WUHU21623XXSP,2013-01-18 17:29:00,
2013-01-18 12:30:00,30.0,19.6,29.92,SSW,202,8.1,8.1,65,0.00,,,0.00,WUHU21623XXSP,2013-01-18 17:30:00,
2013-01-18 12:32:00,30.2,19.8,29.92,SW,225,6.5,8.1,65,0.00,,,0.00,WUHU21623XXSP,2013-01-18 17:32:00,
2013-01-18 12:34:00,30.4,19.9,29.91,SW,225,7.8,8.1,65,0.00,,,0.00,WUHU21623XXSP,2013-01-18 17:34:00,
2013-01-18 12:35:00,30.4,19.9,29.91,SW,225,7.8,8.1,65,0.00,,,0.00,WUHU21623XXSP,2013-01-18 17:35:00,
2013-01-18 12:36:00,30.4,19.6,29.91,SSW,202,8.9,8.9,64,0.00,,,0.00,WUHU21623XXSP,2013-01-18 17:36:00,
2013-01-18 12:37:00,30.4,19.6,29.91,SSW,202,8.9,8.9,64,0.00,,,0.00,WUHU21623XXSP,2013-01-18 17:37:00,
2013-01-18 12:39:00,30.6,19.8,29.91,SW,225,9.8,9.8,64,0.00,,,0.00,WUHU21623XXSP,2013-01-18 17:39:00,
2013-01-18 12:40:00,30.7,20.3,29.91,South,180,10.3,10.3,65,0.00,,,0.00,WUHU21623XXSP,2013-01-18 17:40:00,
2013-01-18 12:41:00,30.7,20.3,29.91,South,180,10.3,10.3,65,0.00,,,0.00,WUHU21623XXSP,2013-01-18 17:41:00,
2013-01-18 12:42:00,30.9,20.1,29.91,South,180,6.9,10.3,64,0.00,,,0.00,WUHU21623XXSP,2013-01-18 17:42:00,
2013-01-18 12:44:00,31.1,20.1,29.90,South,180,6.9,10.3,64,0.00,,,0.00,WUHU21623XXSP,2013-01-18 17:44:00,
2013-01-18 12:45:00,31.1,20.1,29.90,South,180,6.9,10.3,64,0.00,,,0.00,WUHU21623XXSP,2013-01-18 17:45:00,
2013-01-18 12:47:00,31.1,20.3,29.90,SSW,202,9.8,10.3,64,0.00,,,0.00,WUHU21623XXSP,2013-01-18 17:47:00,
2013-01-18 12:49:00,31.3,20.5,29.90,SSW,202,8.3,10.3,64,0.00,,,0.00,WUHU21623XXSP,2013-01-18 17:49:00,
2013-01-18 12:51:00,31.3,20.1,29.90,SSE,157,11.6,11.6,63,0.00,,,0.00,WUHU21623XXSP,2013-01-18 17:51:00,
2013-01-18 12:52:00,31.3,20.1,29.90,SSE,157,11.6,11.6,63,0.00,,,0.00,WUHU21623XXSP,2013-01-18 17:52:00,
2013-01-18 12:54:00,31.3,20.1,29.90,South,180,14.8,14.8,63,0.00,,,0.00,WUHU21623XXSP,2013-01-18 17:54:00,
2013-01-18 12:56:00,31.3,20.1,29.90,South,180,9.6,14.8,63,0.00,,,0.00,WUHU21623XXSP,2013-01-18 17:56:00,
2013-01-18 12:57:00,31.3,20.1,29.90,South,180,6.9,14.8,63,0.00,,,0.00,WUHU21623XXSP,2013-01-18 17:57:00,
2013-01-18 12:58:00,31.3,20.1,29.90,South,180,6.9,14.8,63,0.00,,,0.00,WUHU21623XXSP,2013-01-18 17:58:00,
2013-01-18 12:59:00,31.3,20.1,29.89,SSW,202,8.7,14.8,63,0.00,,,0.00,WUHU21623XXSP,2013-01-18 17:59:00,
2013-01-18 13:01:00,31.3,20.1,29.89,South,180,13.2,14.8,63,0.00,,,0.00,WUHU21623XXSP,2013-01-18 18:01:00,
2013-01-18 13:02:00,31.3,20.1,29.89,South,180,13.2,13.2,63,0.00,,,0.00,WUHU21623XXSP,2013-01-18 18:02:00,
2013-01-18 13:03:00,31.5,20.3,29.89,South,180,8.5,13.2,63,0.00,,,0.00,WUHU21623XXSP,2013-01-18 18:03:00,
2013-01-18 13:05:00,31.5,20.3,29.89,South,180,8.5,13.2,63,0.00,,,0.00,WUHU21623XXSP,2013-01-18 18:05:00,
2013-01-18 13:06:00,31.6,20.5,29.88,South,180,8.7,13.2,63,0.00,,,0.00,WUHU21623XXSP,2013-01-18 18:06:00,
2013-01-18 13:07:00,31.6,20.5,29.88,SSW,202,12.3,13.2,63,0.00,,,0.00,WUHU21623XXSP,2013-01-18 18:07:00,
2013-01-18 13:09:00,31.6,20.5,29.88,SSW,202,12.3,13.2,63,0.00,,,0.00,WUHU21623XXSP,2013-01-18 18:09:00,
2013-01-18 13:10:00,31.6,20.5,29.88,SSW,202,12.3,13.2,63,0.00,,,0.00,WUHU21623XXSP,2013-01-18 18:10:00,
2013-01-18 13:12:00,31.6,20.5,29.88,SSW,202,9.6,12.3,63,0.00,,,0.00,WUHU21623XXSP,2013-01-18 18:12:00,
2013-01-18 13:13:00,31.6,20.5,29.88,SSW,202,9.6,12.3,63,0.00,,,0.00,WUHU21623XXSP,2013-01-18 18:13:00,
2013-01-18 13:14:00,31.6,20.1,29.87,SW,225,9.4,12.3,62,0.00,,,0.00,WUHU21623XXSP,2013-01-18 18:14:00,
2013-01-18 13:15:00,31.6,20.1,29.87,SW,225,9.4,12.3,62,0.00,,,0.00,WUHU21623XXSP,2013-01-18 18:15:00,
2013-01-18 13:18:00,31.6,20.1,29.87,SSW,202,9.4,12.3,62,0.00,,,0.00,WUHU21623XXSP,2013-01-18 18:18:00,
2013-01-18 13:19:00,31.6,20.1,29.87,SSW,202,9.4,12.3,62,0.00,,,0.00,WUHU21623XXSP,2013-01-18 18:19:00,
2013-01-18 13:20:00,31.6,20.1,29.87,SSW,202,9.4,9.6,62,0.00,,,0.00,WUHU21623XXSP,2013-01-18 18:20:00,
2013-01-18 13:23:00,31.6,20.1,29.87,South,180,13.9,13.9,62,0.00,,,0.00,WUHU21623XXSP,2013-01-18 18:23:00,
2013-01-18 13:24:00,31.6,20.1,29.87,South,180,13.9,13.9,62,0.00,,,0.00,WUHU21623XXSP,2013-01-18 18:24:00,
2013-01-18 13:25:00,31.8,20.3,29.87,SSW,202,9.4,13.9,62,0.00,,,0.00,WUHU21623XXSP,2013-01-18 18:25:00,
2013-01-18 13:28:00,31.8,20.3,29.86,SSW,202,9.4,13.9,62,0.00,,,0.00,WUHU21623XXSP,2013-01-18 18:28:00,
2013-01-18 13:29:00,31.8,20.3,29.86,SSW,202,9.4,13.9,62,0.00,,,0.00,WUHU21623XXSP,2013-01-18 18:29:00,
2013-01-18 13:30:00,31.8,19.9,29.86,South,180,12.8,13.9,61,0.00,,,0.00,WUHU21623XXSP,2013-01-18 18:30:00,
2013-01-18 13:33:00,31.8,19.9,29.86,South,180,11.9,12.8,61,0.00,,,0.00,WUHU21623XXSP,2013-01-18 18:33:00,
2013-01-18 13:34:00,31.8,19.9,29.86,South,180,11.9,12.8,61,0.00,,,0.00,WUHU21623XXSP,2013-01-18 18:34:00,
2013-01-18 13:35:00,31.8,19.9,29.86,South,180,14.8,14.8,61,0.00,,,0.00,WUHU21623XXSP,2013-01-18 18:35:00,
2013-01-18 13:38:00,31.8,19.9,29.86,South,180,18.1,18.1,61,0.00,,,0.00,WUHU21623XXSP,2013-01-18 18:38:00,
2013-01-18 13:39:00,31.8,19.9,29.86,South,180,18.1,18.1,61,0.00,,,0.00,WUHU21623XXSP,2013-01-18 18:39:00,
2013-01-18 13:40:00,31.8,19.9,29.86,South,180,13.2,18.1,61,0.00,,,0.00,WUHU21623XXSP,2013-01-18 18:40:00,
2013-01-18 13:44:00,31.8,19.9,29.85,South,180,12.1,18.1,61,0.00,,,0.00,WUHU21623XXSP,2013-01-18 18:44:00,
2013-01-18 13:46:00,31.8,19.9,29.85,SSW,202,13.2,18.1,61,0.00,,,0.00,WUHU21623XXSP,2013-01-18 18:46:00,
2013-01-18 13:49:00,31.8,19.9,29.85,SSW,202,8.5,15.7,61,0.00,,,0.00,WUHU21623XXSP,2013-01-18 18:49:00,
2013-01-18 13:50:00,31.8,19.9,29.85,SSW,202,8.5,15.7,61,0.00,,,0.00,WUHU21623XXSP,2013-01-18 18:50:00,
2013-01-18 13:51:00,31.8,19.9,29.85,South,180,16.8,16.8,61,0.00,,,0.00,WUHU21623XXSP,2013-01-18 18:51:00,
2013-01-18 13:54:00,31.8,19.9,29.85,South,180,17.2,17.2,61,0.00,,,0.00,WUHU21623XXSP,2013-01-18 18:54:00,
2013-01-18 13:55:00,31.8,19.9,29.85,South,180,16.3,17.2,61,0.00,,,0.00,WUHU21623XXSP,2013-01-18 18:55:00,
2013-01-18 13:56:00,31.8,19.9,29.85,South,180,16.3,17.2,61,0.00,,,0.00,WUHU21623XXSP,2013-01-18 18:56:00,
2013-01-18 13:59:00,32.2,20.6,29.85,South,180,11.9,17.2,62,0.00,,,0.00,WUHU21623XXSP,2013-01-18 18:59:00,
2013-01-18 14:00:00,32.2,20.6,29.85,South,180,11.9,17.2,62,0.00,,,0.00,WUHU21623XXSP,2013-01-18 19:00:00,
2013-01-18 14:01:00,32.2,20.3,29.85,SSW,202,15.2,17.2,61,0.00,,,0.00,WUHU21623XXSP,2013-01-18 19:01:00,
2013-01-18 14:04:00,32.2,20.3,29.84,South,180,15.0,16.3,61,0.00,,,0.00,WUHU21623XXSP,2013-01-18 19:04:00,
2013-01-18 14:05:00,32.2,20.3,29.84,SSW,202,12.5,15.2,61,0.00,,,0.00,WUHU21623XXSP,2013-01-18 19:05:00,
2013-01-18 14:06:00,32.2,20.3,29.84,SSW,202,12.5,15.2,61,0.00,,,0.00,WUHU21623XXSP,2013-01-18 19:06:00,
2013-01-18 14:09:00,32.2,20.3,29.84,South,180,17.0,17.0,61,0.00,,,0.00,WUHU21623XXSP,2013-01-18 19:09:00,
2013-01-18 14:10:00,32.4,20.4,29.84,South,180,15.2,17.0,61,0.00,,,0.00,WUHU21623XXSP,2013-01-18 19:10:00,
2013-01-18 14:11:00,32.4,20.4,29.84,South,180,15.2,17.0,61,0.00,,,0.00,WUHU21623XXSP,2013-01-18 19:11:00,
2013-01-18 14:14:00,32.5,20.6,29.83,South,180,12.5,17.0,61,0.00,,,0.00,WUHU21623XXSP,2013-01-18 19:14:00,
2013-01-18 14:15:00,32.5,20.6,29.83,South,180,12.5,17.0,61,0.00,,,0.00,WUHU21623XXSP,2013-01-18 19:15:00,
2013-01-18 14:16:00,32.5,20.6,29.84,South,180,15.4,17.0,61,0.00,,,0.00,WUHU21623XXSP,2013-01-18 19:16:00,
2013-01-18 14:20:00,32.7,20.8,29.84,South,180,21.7,21.7,61,0.00,,,0.00,WUHU21623XXSP,2013-01-18 19:20:00,
2013-01-18 14:21:00,32.7,20.8,29.83,South,180,13.6,21.7,61,0.00,,,0.00,WUHU21623XXSP,2013-01-18 19:21:00,
2013-01-18 14:25:00,32.9,20.9,29.83,SSW,202,14.8,21.7,61,0.00,,,0.00,WUHU21623XXSP,2013-01-18 19:25:00,
2013-01-18 14:26:00,32.9,20.9,29.83,SSW,202,14.8,21.7,61,0.00,,,0.00,WUHU21623XXSP,2013-01-18 19:26:00,
2013-01-18 14:30:00,33.4,21.1,29.82,SSW,202,17.2,17.2,60,0.00,,,0.00,WUHU21623XXSP,2013-01-18 19:30:00,
2013-01-18 14:31:00,33.4,21.1,29.82,South,180,20.1,20.1,60,0.00,,,0.00,WUHU21623XXSP,2013-01-18 19:31:00,
2013-01-18 14:32:00,33.4,21.1,29.82,South,180,20.1,20.1,60,0.00,,,0.00,WUHU21623XXSP,2013-01-18 19:32:00,
2013-01-18 14:36:00,33.6,21.2,29.82,SSW,202,9.6,20.1,60,0.00,,,0.00,WUHU21623XXSP,2013-01-18 19:36:00,
2013-01-18 14:37:00,33.6,21.2,29.82,SSW,202,9.6,20.1,60,0.00,,,0.00,WUHU21623XXSP,2013-01-18 19:37:00,
2013-01-18 14:41:00,33.6,21.2,29.82,South,180,16.3,18.3,60,0.00,,,0.00,WUHU21623XXSP,2013-01-18 19:41:00,
2013-01-18 14:42:00,33.6,21.6,29.82,South,180,13.6,18.3,61,0.00,,,0.00,WUHU21623XXSP,2013-01-18 19:42:00,
2013-01-18 14:46:00,34.0,21.9,29.82,SSW,202,12.1,17.7,61,0.00,,,0.00,WUHU21623XXSP,2013-01-18 19:46:00,
2013-01-18 14:47:00,34.0,21.9,29.82,SSW,202,12.1,17.7,61,0.00,,,0.00,WUHU21623XXSP,2013-01-18 19:47:00,
2013-01-18 14:51:00,34.2,21.7,29.81,SSW,202,13.0,13.9,60,0.00,,,0.00,WUHU21623XXSP,2013-01-18 19:51:00,
2013-01-18 14:52:00,34.2,21.7,29.81,SSW,202,13.0,13.9,60,0.00,,,0.00,WUHU21623XXSP,2013-01-18 19:52:00,
2013-01-18 14:56:00,33.8,21.7,29.81,South,180,11.9,13.9,61,0.00,,,0.00,WUHU21623XXSP,2013-01-18 19:56:00,
2013-01-18 14:57:00,33.6,21.6,29.81,SSW,202,15.2,15.2,61,0.00,,,0.00,WUHU21623XXSP,2013-01-18 19:57:00,
2013-01-18 14:58:00,33.6,21.6,29.81,SSW,202,15.2,15.2,61,0.00,,,0.00,WUHU21623XXSP,2013-01-18 19:58:00,
2013-01-18 15:01:00,33.4,21.4,29.81,SSW,202,12.3,15.2,61,0.00,,,0.00,WUHU21623XXSP,2013-01-18 20:01:00,
2013-01-18 15:02:00,33.4,21.4,29.81,SSW,202,12.3,15.2,61,0.00,,,0.00,WUHU21623XXSP,2013-01-18 20:02:00,
2013-01-18 15:03:00,33.4,21.4,29.81,SSW,202,12.3,15.2,61,0.00,,,0.00,WUHU21623XXSP,2013-01-18 20:03:00,
2013-01-18 15:06:00,33.1,21.5,29.80,South,180,13.4,15.2,62,0.00,,,0.00,WUHU21623XXSP,2013-01-18 20:06:00,
2013-01-18 15:07:00,33.1,21.5,29.80,South,180,13.4,13.4,62,0.00,,,0.00,WUHU21623XXSP,2013-01-18 20:07:00,
2013-01-18 15:08:00,33.3,21.6,29.80,South,180,14.8,14.8,62,0.00,,,0.00,WUHU21623XXSP,2013-01-18 20:08:00,
2013-01-18 15:11:00,33.1,21.5,29.80,SSW,202,12.1,14.8,62,0.00,,,0.00,WUHU21623XXSP,2013-01-18 20:11:00,
2013-01-18 15:12:00,33.1,21.5,29.80,SSW,202,12.1,14.8,62,0.00,,,0.00,WUHU21623XXSP,2013-01-18 20:12:00,
2013-01-18 15:13:00,33.1,21.5,29.80,SSW,202,12.1,14.8,62,0.00,,,0.00,WUHU21623XXSP,2013-01-18 20:13:00,
2013-01-18 15:17:00,33.3,22.0,29.80,South,180,14.5,14.8,63,0.00,,,0.00,WUHU21623XXSP,2013-01-18 20:17:00,
2013-01-18 15:18:00,33.3,22.0,29.80,South,180,14.5,14.8,63,0.00,,,0.00,WUHU21623XXSP,2013-01-18 20:18:00,
2013-01-18 15:22:00,33.4,22.1,29.80,South,180,13.9,14.5,63,0.00,,,0.00,WUHU21623XXSP,2013-01-18 20:22:00,
2013-01-18 15:23:00,33.4,22.1,29.80,SSW,202,7.8,14.5,63,0.00,,,0.00,WUHU21623XXSP,2013-01-18 20:23:00,
2013-01-18 15:27:00,33.6,22.3,29.79,SSW,202,15.4,15.4,63,0.00,,,0.00,WUHU21623XXSP,2013-01-18 20:27:00,
2013-01-18 15:28:00,33.6,22.3,29.79,SSW,202,15.4,15.4,63,0.00,,,0.00,WUHU21623XXSP,2013-01-18 20:28:00,
2013-01-18 15:29:00,33.6,22.3,29.79,SSW,202,15.2,15.4,63,0.00,,,0.00,WUHU21623XXSP,2013-01-18 20:29:00,
2013-01-18 15:32:00,33.8,22.3,29.79,SSW,202,15.2,15.4,63,0.00,,,0.00,WUHU21623XXSP,2013-01-18 20:32:00,
2013-01-18 15:33:00,33.8,22.3,29.79,SSW,202,15.2,15.4,63,0.00,,,0.00,WUHU21623XXSP,2013-01-18 20:33:00,
2013-01-18 15:34:00,34.0,22.6,29.79,South,180,17.9,17.9,63,0.00,,,0.00,WUHU21623XXSP,2013-01-18 20:34:00,
2013-01-18 15:37:00,34.2,22.5,29.78,South,180,17.2,17.9,62,0.00,,,0.00,WUHU21623XXSP,2013-01-18 20:37:00,
2013-01-18 15:38:00,34.2,22.5,29.78,South,180,17.2,17.9,62,0.00,,,0.00,WUHU21623XXSP,2013-01-18 20:38:00,
2013-01-18 15:39:00,34.2,22.5,29.78,South,180,17.2,17.9,62,0.00,,,0.00,WUHU21623XXSP,2013-01-18 20:39:00,
2013-01-18 15:42:00,34.2,22.5,29.78,SSW,202,20.8,20.8,62,0.00,,,0.00,WUHU21623XXSP,2013-01-18 20:42:00,
2013-01-18 15:43:00,34.2,22.5,29.78,SSW,202,20.8,20.8,62,0.00,,,0.00,WUHU21623XXSP,2013-01-18 20:43:00,
2013-01-18 15:44:00,34.0,22.5,29.78,SSW,202,20.8,20.8,62,0.00,,,0.00,WUHU21623XXSP,2013-01-18 20:44:00,
2013-01-18 15:47:00,34.0,22.3,29.78,SW,225,14.8,20.8,62,0.00,,,0.00,WUHU21623XXSP,2013-01-18 20:47:00,
2013-01-18 15:48:00,34.0,22.3,29.78,SW,225,14.8,20.8,62,0.00,,,0.00,WUHU21623XXSP,2013-01-18 20:48:00,
2013-01-18 15:49:00,34.0,22.3,29.77,SSW,202,14.8,20.8,62,0.00,,,0.00,WUHU21623XXSP,2013-01-18 20:49:00,
2013-01-18 15:52:00,34.0,22.3,29.77,South,180,18.3,20.8,62,0.00,,,0.00,WUHU21623XXSP,2013-01-18 20:52:00,
2013-01-18 15:53:00,34.0,22.3,29.77,South,180,18.3,20.8,62,0.00,,,0.00,WUHU21623XXSP,2013-01-18 20:53:00,
2013-01-18 15:54:00,34.0,22.3,29.77,South,180,18.3,20.8,62,0.00,,,0.00,WUHU21623XXSP,2013-01-18 20:54:00,
2013-01-18 15:57:00,34.0,22.3,29.77,South,180,11.9,20.8,62,0.00,,,0.00,WUHU21623XXSP,2013-01-18 20:57:00,
2013-01-18 15:58:00,34.0,22.3,29.77,South,180,11.9,20.8,62,0.00,,,0.00,WUHU21623XXSP,2013-01-18 20:58:00,
2013-01-18 15:59:00,34.0,22.6,29.77,South,180,17.2,20.8,63,0.00,,,0.00,WUHU21623XXSP,2013-01-18 20:59:00,
2013-01-18 16:02:00,33.8,22.6,29.77,South,180,11.6,17.2,63,0.00,,,0.00,WUHU21623XXSP,2013-01-18 21:02:00,
2013-01-18 16:03:00,34.0,22.6,29.77,SSW,202,12.5,17.2,63,0.00,,,0.00,WUHU21623XXSP,2013-01-18 21:03:00,
2013-01-18 16:04:00,34.0,22.6,29.77,SSW,202,12.5,17.2,63,0.00,,,0.00,WUHU21623XXSP,2013-01-18 21:04:00,
2013-01-18 16:08:00,34.0,22.6,29.76,South,180,13.6,17.2,63,0.00,,,0.00,WUHU21623XXSP,2013-01-18 21:08:00,
2013-01-18 16:09:00,34.0,22.6,29.76,South,180,13.6,13.9,63,0.00,,,0.00,WUHU21623XXSP,2013-01-18 21:09:00,
2013-01-18 16:10:00,34.0,22.6,29.77,South,180,13.6,13.9,63,0.00,,,0.00,WUHU21623XXSP,2013-01-18 21:10:00,
2013-01-18 16:13:00,34.0,22.6,29.76,South,180,17.4,17.4,63,0.00,,,0.00,WUHU21623XXSP,2013-01-18 21:13:00,
2013-01-18 16:15:00,34.0,22.6,29.76,South,180,14.8,17.4,63,0.00,,,0.00,WUHU21623XXSP,2013-01-18 21:15:00,
2013-01-18 16:18:00,34.0,22.6,29.76,South,180,16.8,17.4,63,0.00,,,0.00,WUHU21623XXSP,2013-01-18 21:18:00,
2013-01-18 16:20:00,34.0,22.6,29.76,SSW,202,13.0,17.4,63,0.00,,,0.00,WUHU21623XXSP,2013-01-18 21:20:00,
2013-01-18 16:23:00,34.0,22.6,29.76,SSW,202,13.2,16.8,63,0.00,,,0.00,WUHU21623XXSP,2013-01-18 21:23:00,
2013-01-18 16:25:00,34.0,22.6,29.76,SSW,202,13.2,16.8,63,0.00,,,0.00,WUHU21623XXSP,2013-01-18 21:25:00,
2013-01-18 16:28:00,34.0,22.6,29.76,South,180,18.1,18.1,63,0.00,,,0.00,WUHU21623XXSP,2013-01-18 21:28:00,
2013-01-18 16:29:00,34.0,22.6,29.76,South,180,18.1,18.1,63,0.00,,,0.00,WUHU21623XXSP,2013-01-18 21:29:00,
2013-01-18 16:30:00,34.0,22.6,29.76,South,180,16.3,18.1,63,0.00,,,0.00,WUHU21623XXSP,2013-01-18 21:30:00,
2013-01-18 16:33:00,34.0,22.6,29.75,SSW,202,13.4,19.5,63,0.00,,,0.00,WUHU21623XXSP,2013-01-18 21:33:00,
2013-01-18 16:34:00,34.0,22.6,29.75,SSW,202,13.4,19.5,63,0.00,,,0.00,WUHU21623XXSP,2013-01-18 21:34:00,
2013-01-18 16:35:00,34.0,22.6,29.75,SSW,202,13.4,19.5,63,0.00,,,0.00,WUHU21623XXSP,2013-01-18 21:35:00,
2013-01-18 16:36:00,33.8,22.5,29.75,South,180,13.4,19.5,63,0.00,,,0.00,WUHU21623XXSP,2013-01-18 21:36:00,
2013-01-18 16:39:00,33.6,22.3,29.75,SSW,202,13.4,19.5,63,0.00,,,0.00,WUHU21623XXSP,2013-01-18 21:39:00,
2013-01-18 16:40:00,33.6,22.7,29.75,South,180,19.0,19.5,64,0.00,,,0.00,WUHU21623XXSP,2013-01-18 21:40:00,
2013-01-18 16:41:00,33.6,22.7,29.75,South,180,19.0,19.5,64,0.00,,,0.00,WUHU21623XXSP,2013-01-18 21:41:00,
2013-01-18 16:44:00,33.4,22.7,29.75,South,180,19.0,19.0,64,0.00,,,0.00,WUHU21623XXSP,2013-01-18 21:44:00,
2013-01-18 16:45:00,33.4,22.5,29.74,SSW,202,14.5,19.0,64,0.00,,,0.00,WUHU21623XXSP,2013-01-18 21:45:00,
2013-01-18 16:47:00,33.4,22.5,29.74,SSW,202,12.3,19.0,64,0.00,,,0.00,WUHU21623XXSP,2013-01-18 21:47:00,
2013-01-18 16:49:00,33.4,22.5,29.74,SSW,202,15.2,19.0,64,0.00,,,0.00,WUHU21623XXSP,2013-01-18 21:49:00,
2013-01-18 16:50:00,33.4,22.5,29.74,SSW,202,15.2,19.0,64,0.00,,,0.00,WUHU21623XXSP,2013-01-18 21:50:00,
2013-01-18 16:52:00,33.3,22.5,29.74,SSW,202,15.2,15.2,64,0.00,,,0.00,WUHU21623XXSP,2013-01-18 21:52:00,
2013-01-18 16:54:00,33.3,22.3,29.74,SSW,202,14.8,15.2,64,0.00,,,0.00,WUHU21623XXSP,2013-01-18 21:54:00,
2013-01-18 16:55:00,33.3,22.3,29.74,South,180,15.9,15.9,64,0.00,,,0.00,WUHU21623XXSP,2013-01-18 21:55:00,
2013-01-18 16:57:00,33.3,22.3,29.74,South,180,17.7,17.7,64,0.00,,,0.00,WUHU21623XXSP,2013-01-18 21:57:00,
2013-01-18 16:59:00,33.3,22.3,29.74,South,180,17.7,17.7,64,0.00,,,0.00,WUHU21623XXSP,2013-01-18 21:59:00,
2013-01-18 17:00:00,33.1,22.3,29.73,South,180,17.7,17.7,65,0.00,,,0.00,WUHU21623XXSP,2013-01-18 22:00:00,
2013-01-18 17:02:00,33.1,22.5,29.73,South,180,15.2,17.7,65,0.00,,,0.00,WUHU21623XXSP,2013-01-18 22:02:00,
2013-01-18 17:04:00,33.1,22.5,29.73,South,180,15.4,17.7,65,0.00,,,0.00,WUHU21623XXSP,2013-01-18 22:04:00,
2013-01-18 17:05:00,33.1,22.5,29.73,South,180,15.4,17.7,65,0.00,,,0.00,WUHU21623XXSP,2013-01-18 22:05:00,
2013-01-18 17:06:00,33.1,22.5,29.73,South,180,10.1,17.7,65,0.00,,,0.00,WUHU21623XXSP,2013-01-18 22:06:00,
2013-01-18 17:08:00,33.1,22.5,29.73,South,180,13.0,17.7,65,0.00,,,0.00,WUHU21623XXSP,2013-01-18 22:08:00,
2013-01-18 17:09:00,33.1,22.5,29.73,South,180,13.0,15.4,65,0.00,,,0.00,WUHU21623XXSP,2013-01-18 22:09:00,
2013-01-18 17:10:00,33.1,22.5,29.73,South,180,9.8,15.4,65,0.00,,,0.00,WUHU21623XXSP,2013-01-18 22:10:00,
2013-01-18 17:11:00,33.1,22.5,29.73,South,180,9.8,15.4,65,0.00,,,0.00,WUHU21623XXSP,2013-01-18 22:11:00,
2013-01-18 17:13:00,33.1,22.5,29.73,South,180,10.3,15.4,65,0.00,,,0.00,WUHU21623XXSP,2013-01-18 22:13:00,
2013-01-18 17:14:00,33.1,22.5,29.73,South,180,12.3,13.0,65,0.00,,,0.00,WUHU21623XXSP,2013-01-18 22:14:00,
2013-01-18 17:15:00,33.1,22.5,29.73,South,180,12.3,13.0,65,0.00,,,0.00,WUHU21623XXSP,2013-01-18 22:15:00,
2013-01-18 17:16:00,33.1,22.5,29.73,South,180,12.3,13.0,65,0.00,,,0.00,WUHU21623XXSP,2013-01-18 22:16:00,
2013-01-18 17:18:00,33.3,23.1,29.73,South,180,11.9,12.3,66,0.00,,,0.00,WUHU21623XXSP,2013-01-18 22:18:00,
2013-01-18 17:20:00,33.3,23.1,29.73,South,180,16.1,16.1,66,0.00,,,0.00,WUHU21623XXSP,2013-01-18 22:20:00,
2013-01-18 17:21:00,33.3,23.1,29.73,South,180,16.1,16.1,66,0.00,,,0.00,WUHU21623XXSP,2013-01-18 22:21:00,
2013-01-18 17:23:00,33.1,22.5,29.72,SSW,202,14.3,16.1,65,0.00,,,0.00,WUHU21623XXSP,2013-01-18 22:23:00,
2013-01-18 17:25:00,33.1,22.5,29.72,SSE,157,16.6,16.6,65,0.00,,,0.00,WUHU21623XXSP,2013-01-18 22:25:00,
2013-01-18 17:26:00,33.1,22.5,29.72,SSE,157,16.6,16.6,65,0.00,,,0.00,WUHU21623XXSP,2013-01-18 22:26:00,
2013-01-18 17:28:00,33.1,22.9,29.72,South,180,21.0,21.0,66,0.00,,,0.00,WUHU21623XXSP,2013-01-18 22:28:00,
2013-01-18 17:30:00,33.1,22.9,29.72,South,180,17.4,21.0,66,0.00,,,0.00,WUHU21623XXSP,2013-01-18 22:30:00,
2013-01-18 17:31:00,33.1,22.9,29.72,South,180,17.4,21.0,66,0.00,,,0.00,WUHU21623XXSP,2013-01-18 22:31:00,
2013-01-18 17:33:00,32.9,22.7,29.72,South,180,15.4,21.0,66,0.00,,,0.00,WUHU21623XXSP,2013-01-18 22:33:00,
2013-01-18 17:35:00,32.9,22.7,29.72,South,180,15.4,21.0,66,0.00,,,0.00,WUHU21623XXSP,2013-01-18 22:35:00,
2013-01-18 17:36:00,32.9,22.7,29.72,South,180,15.2,21.0,66,0.00,,,0.00,WUHU21623XXSP,2013-01-18 22:36:00,
2013-01-18 17:37:00,32.9,22.7,29.72,South,180,15.2,21.0,66,0.00,,,0.00,WUHU21623XXSP,2013-01-18 22:37:00,
2013-01-18 17:39:00,32.7,22.6,29.72,South,180,14.3,15.4,66,0.00,,,0.00,WUHU21623XXSP,2013-01-18 22:39:00,
2013-01-18 17:40:00,32.7,22.6,29.72,South,180,13.6,15.4,66,0.00,,,0.00,WUHU21623XXSP,2013-01-18 22:40:00,
2013-01-18 17:41:00,32.7,22.6,29.72,South,180,13.6,15.4,66,0.00,,,0.00,WUHU21623XXSP,2013-01-18 22:41:00,
2013-01-18 17:42:00,32.7,22.6,29.72,South,180,13.6,15.4,66,0.00,,,0.00,WUHU21623XXSP,2013-01-18 22:42:00,
2013-01-18 17:44:00,32.5,22.8,29.72,South,180,13.6,16.8,67,0.00,,,0.00,WUHU21623XXSP,2013-01-18 22:44:00,
2013-01-18 17:45:00,32.5,22.8,29.72,South,180,13.6,16.8,67,0.00,,,0.00,WUHU21623XXSP,2013-01-18 22:45:00,
2013-01-18 17:47:00,32.5,22.8,29.71,South,180,9.6,16.8,67,0.00,,,0.00,WUHU21623XXSP,2013-01-18 22:47:00,
2013-01-18 17:50:00,32.5,22.8,29.71,South,180,10.7,16.8,67,0.00,,,0.00,WUHU21623XXSP,2013-01-18 22:50:00,
2013-01-18 17:51:00,32.4,22.8,29.71,South,180,10.7,16.8,67,0.00,,,0.00,WUHU21623XXSP,2013-01-18 22:51:00,
2013-01-18 17:52:00,32.4,22.8,29.71,South,180,10.7,16.8,67,0.00,,,0.00,WUHU21623XXSP,2013-01-18 22:52:00,
2013-01-18 17:53:00,32.4,22.6,29.71,South,180,17.4,17.4,67,0.00,,,0.00,WUHU21623XXSP,2013-01-18 22:53:00,
2013-01-18 17:55:00,32.4,22.6,29.71,SSW,202,17.9,17.9,67,0.00,,,0.00,WUHU21623XXSP,2013-01-18 22:55:00,
2013-01-18 17:56:00,32.4,22.6,29.71,SSW,202,17.9,17.9,67,0.00,,,0.00,WUHU21623XXSP,2013-01-18 22:56:00,
2013-01-18 17:57:00,32.4,22.6,29.71,SSW,202,14.1,17.9,67,0.00,,,0.00,WUHU21623XXSP,2013-01-18 22:57:00,
2013-01-18 17:58:00,32.4,22.6,29.71,SSW,202,14.1,17.9,67,0.00,,,0.00,WUHU21623XXSP,2013-01-18 22:58:00,
2013-01-18 18:01:00,32.4,22.6,29.71,SSW,202,14.1,17.9,67,0.00,,,0.00,WUHU21623XXSP,2013-01-18 23:01:00,
2013-01-18 18:02:00,32.2,22.4,29.71,South,180,11.9,17.9,67,0.00,,,0.00,WUHU21623XXSP,2013-01-18 23:02:00,
2013-01-18 18:03:00,32.2,22.4,29.71,South,180,11.9,17.9,67,0.00,,,0.00,WUHU21623XXSP,2013-01-18 23:03:00,
2013-01-18 18:06:00,32.2,22.4,29.70,South,180,13.2,17.2,67,0.00,,,0.00,WUHU21623XXSP,2013-01-18 23:06:00,
2013-01-18 18:07:00,32.2,22.4,29.70,South,180,13.2,17.2,67,0.00,,,0.00,WUHU21623XXSP,2013-01-18 23:07:00,
2013-01-18 18:08:00,32.2,22.4,29.70,South,180,13.0,17.2,67,0.00,,,0.00,WUHU21623XXSP,2013-01-18 23:08:00,
2013-01-18 18:09:00,32.2,22.4,29.70,South,180,13.0,17.2,67,0.00,,,0.00,WUHU21623XXSP,2013-01-18 23:09:00,
2013-01-18 18:11:00,31.8,22.1,29.70,South,180,10.3,17.2,67,0.00,,,0.00,WUHU21623XXSP,2013-01-18 23:11:00,
2013-01-18 18:12:00,31.8,22.1,29.70,South,180,16.1,17.2,67,0.00,,,0.00,WUHU21623XXSP,2013-01-18 23:12:00,
2013-01-18 18:13:00,31.8,22.1,29.70,South,180,16.1,17.2,67,0.00,,,0.00,WUHU21623XXSP,2013-01-18 23:13:00,
2013-01-18 18:14:00,31.8,22.1,29.70,South,180,16.1,16.1,67,0.00,,,0.00,WUHU21623XXSP,2013-01-18 23:14:00,
2013-01-18 18:17:00,31.8,22.1,29.70,South,180,14.1,16.1,67,0.00,,,0.00,WUHU21623XXSP,2013-01-18 23:17:00,
2013-01-18 18:18:00,31.8,22.1,29.70,South,180,14.1,16.1,67,0.00,,,0.00,WUHU21623XXSP,2013-01-18 23:18:00,
2013-01-18 18:19:00,31.6,21.9,29.70,South,180,19.0,19.0,67,0.00,,,0.00,WUHU21623XXSP,2013-01-18 23:19:00,
2013-01-18 18:22:00,31.8,22.1,29.69,South,180,13.2,19.0,67,0.00,,,0.00,WUHU21623XXSP,2013-01-18 23:22:00,
2013-01-18 18:23:00,31.6,22.3,29.69,South,180,18.3,19.0,68,0.00,,,0.00,WUHU21623XXSP,2013-01-18 23:23:00,
2013-01-18 18:24:00,31.6,22.3,29.69,South,180,18.3,19.0,68,0.00,,,0.00,WUHU21623XXSP,2013-01-18 23:24:00,
2013-01-18 18:28:00,31.6,22.3,29.69,South,180,15.9,19.0,68,0.00,,,0.00,WUHU21623XXSP,2013-01-18 23:28:00,
2013-01-18 18:29:00,31.6,22.3,29.69,South,180,15.9,19.0,68,0.00,,,0.00,WUHU21623XXSP,2013-01-18 23:29:00,
2013-01-18 18:33:00,31.8,22.5,29.69,SSW,202,12.5,18.3,68,0.00,,,0.00,WUHU21623XXSP,2013-01-18 23:33:00,
2013-01-18 18:34:00,31.8,22.5,29.69,South,180,11.0,18.3,68,0.00,,,0.00,WUHU21623XXSP,2013-01-18 23:34:00,
2013-01-18 18:35:00,31.8,22.5,29.69,South,180,11.0,18.1,68,0.00,,,0.00,WUHU21623XXSP,2013-01-18 23:35:00,
2013-01-18 18:38:00,31.8,22.5,29.69,South,180,12.8,18.1,68,0.00,,,0.00,WUHU21623XXSP,2013-01-18 23:38:00,
2013-01-18 18:39:00,31.8,22.5,29.69,South,180,12.8,18.1,68,0.00,,,0.00,WUHU21623XXSP,2013-01-18 23:39:00,
2013-01-18 18:40:00,31.8,22.1,29.69,South,180,16.1,16.1,67,0.00,,,0.00,WUHU21623XXSP,2013-01-18 23:40:00,
2013-01-18 18:44:00,31.8,22.1,29.69,SSW,202,15.4,16.1,67,0.00,,,0.00,WUHU21623XXSP,2013-01-18 23:44:00,
2013-01-18 18:45:00,31.8,22.1,29.69,South,180,17.7,17.7,67,0.00,,,0.00,WUHU21623XXSP,2013-01-18 23:45:00,
2013-01-18 18:49:00,31.8,22.1,29.68,South,180,10.7,17.7,67,0.00,,,0.00,WUHU21623XXSP,2013-01-18 23:49:00,
2013-01-18 18:50:00,31.8,22.1,29.68,South,180,10.7,17.7,67,0.00,,,0.00,WUHU21623XXSP,2013-01-18 23:50:00,
2013-01-18 18:51:00,31.8,22.1,29.69,South,180,13.0,17.7,67,0.00,,,0.00,WUHU21623XXSP,2013-01-18 23:51:00,
2013-01-18 18:54:00,31.8,22.1,29.69,South,180,17.7,17.7,67,0.00,,,0.00,WUHU21623XXSP,2013-01-18 23:54:00,
2013-01-18 18:55:00,31.8,22.1,29.69,South,180,17.7,17.7,67,0.00,,,0.00,WUHU21623XXSP,2013-01-18 23:55:00,
2013-01-18 18:56:00,31.8,22.1,29.68,SSW,202,10.1,17.7,67,0.00,,,0.00,WUHU21623XXSP,2013-01-18 23:56:00,
2013-01-18 19:00:00,31.8,21.7,29.68,SSW,202,14.3,19.0,66,0.00,,,0.00,WUHU21623XXSP,2013-01-19 00:00:00,
2013-01-18 19:01:00,31.8,21.7,29.68,SSW,202,16.6,19.0,66,0.00,,,0.00,WUHU21623XXSP,2013-01-19 00:01:00,
2013-01-18 19:05:00,31.8,21.7,29.68,South,180,15.4,19.0,66,0.00,,,0.00,WUHU21623XXSP,2013-01-19 00:05:00,
2013-01-18 19:06:00,31.8,21.7,29.68,SSW,202,15.0,19.0,66,0.00,,,0.00,WUHU21623XXSP,2013-01-19 00:06:00,
2013-01-18 19:07:00,31.8,21.7,29.68,SSW,202,15.0,19.0,66,0.00,,,0.00,WUHU21623XXSP,2013-01-19 00:07:00,
2013-01-18 19:10:00,31.8,21.7,29.68,South,180,13.0,16.6,66,0.00,,,0.00,WUHU21623XXSP,2013-01-19 00:10:00,
2013-01-18 19:11:00,31.8,21.7,29.68,South,180,13.0,16.6,66,0.00,,,0.00,WUHU21623XXSP,2013-01-19 00:11:00,
2013-01-18 19:12:00,31.8,21.7,29.68,South,180,13.0,15.4,66,0.00,,,0.00,WUHU21623XXSP,2013-01-19 00:12:00,
2013-01-18 19:15:00,31.8,21.7,29.67,South,180,13.0,17.7,66,0.00,,,0.00,WUHU21623XXSP,2013-01-19 00:15:00,
2013-01-18 19:16:00,31.8,21.7,29.67,South,180,13.0,17.7,66,0.00,,,0.00,WUHU21623XXSP,2013-01-19 00:16:00,
2013-01-18 19:18:00,31.8,21.7,29.67,South,180,16.6,17.7,66,0.00,,,0.00,WUHU21623XXSP,2013-01-19 00:18:00,
2013-01-18 19:21:00,31.8,21.7,29.67,South,180,13.9,17.7,66,0.00,,,0.00,WUHU21623XXSP,2013-01-19 00:21:00,
2013-01-18 19:23:00,31.8,21.7,29.67,SSW,202,14.3,16.6,66,0.00,,,0.00,WUHU21623XXSP,2013-01-19 00:23:00,
2013-01-18 19:26:00,31.8,21.7,29.67,SSW,202,14.3,16.6,66,0.00,,,0.00,WUHU21623XXSP,2013-01-19 00:26:00,
2013-01-18 19:28:00,31.8,21.7,29.67,South,180,18.6,18.6,66,0.00,,,0.00,WUHU21623XXSP,2013-01-19 00:28:00,
2013-01-18 19:31:00,31.8,21.7,29.67,South,180,14.8,18.6,66,0.00,,,0.00,WUHU21623XXSP,2013-01-19 00:31:00,
2013-01-18 19:32:00,31.8,21.7,29.67,South,180,14.8,18.6,66,0.00,,,0.00,WUHU21623XXSP,2013-01-19 00:32:00,
2013-01-18 19:33:00,31.8,21.7,29.66,South,180,14.8,18.6,66,0.00,,,0.00,WUHU21623XXSP,2013-01-19 00:33:00,
2013-01-18 19:36:00,31.8,21.7,29.66,SSW,202,11.6,18.6,66,0.00,,,0.00,WUHU21623XXSP,2013-01-19 00:36:00,
2013-01-18 19:37:00,31.8,21.7,29.66,SSW,202,11.6,18.6,66,0.00,,,0.00,WUHU21623XXSP,2013-01-19 00:37:00,
2013-01-18 19:38:00,31.8,21.7,29.66,South,180,15.0,16.3,66,0.00,,,0.00,WUHU21623XXSP,2013-01-19 00:38:00,
2013-01-18 19:41:00,31.6,21.6,29.66,South,180,15.9,15.9,66,0.00,,,0.00,WUHU21623XXSP,2013-01-19 00:41:00,
2013-01-18 19:42:00,31.6,21.6,29.66,South,180,15.9,15.9,66,0.00,,,0.00,WUHU21623XXSP,2013-01-19 00:42:00,
2013-01-18 19:44:00,31.6,21.6,29.66,SSW,202,11.4,15.9,66,0.00,,,0.00,WUHU21623XXSP,2013-01-19 00:44:00,
2013-01-18 19:47:00,31.6,21.6,29.66,SSW,202,15.2,15.9,66,0.00,,,0.00,WUHU21623XXSP,2013-01-19 00:47:00,
2013-01-18 19:48:00,31.6,21.6,29.66,SSW,202,15.2,15.9,66,0.00,,,0.00,WUHU21623XXSP,2013-01-19 00:48:00,
2013-01-18 19:49:00,31.6,21.6,29.66,South,180,14.1,15.9,66,0.00,,,0.00,WUHU21623XXSP,2013-01-19 00:49:00,
2013-01-18 19:53:00,31.6,21.6,29.66,South,180,17.7,17.7,66,0.00,,,0.00,WUHU21623XXSP,2013-01-19 00:53:00,
2013-01-18 19:54:00,31.6,21.6,29.65,SSW,202,11.9,17.7,66,0.00,,,0.00,WUHU21623XXSP,2013-01-19 00:54:00,
2013-01-18 19:58:00,31.8,21.7,29.65,South,180,18.8,18.8,66,0.00,,,0.00,WUHU21623XXSP,2013-01-19 00:58:00,
2013-01-18 19:59:00,31.8,21.7,29.65,South,180,18.8,18.8,66,0.00,,,0.00,WUHU21623XXSP,2013-01-19 00:59:00,
2013-01-18 20:00:00,31.6,21.6,29.65,SSW,202,15.9,18.8,66,0.00,,,0.00,WUHU21623XXSP,2013-01-19 01:00:00,
2013-01-18 20:03:00,31.8,21.7,29.65,South,180,13.4,18.8,66,0.00,,,0.00,WUHU21623XXSP,2013-01-19 01:03:00,
2013-01-18 20:04:00,31.8,21.7,29.65,South,180,13.4,18.8,66,0.00,,,0.00,WUHU21623XXSP,2013-01-19 01:04:00,
2013-01-18 20:05:00,31.8,21.7,29.65,South,180,13.4,18.8,66,0.00,,,0.00,WUHU21623XXSP,2013-01-19 01:05:00,
2013-01-18 20:08:00,31.8,21.7,29.64,SSW,202,13.0,17.4,66,0.00,,,0.00,WUHU21623XXSP,2013-01-19 01:08:00,
2013-01-18 20:09:00,31.8,21.7,29.64,SSW,202,13.0,17.4,66,0.00,,,0.00,WUHU21623XXSP,2013-01-19 01:09:00,
2013-01-18 20:10:00,31.6,21.6,29.64,South,180,14.5,17.4,66,0.00,,,0.00,WUHU21623XXSP,2013-01-19 01:10:00,
2013-01-18 20:14:00,31.8,21.7,29.64,South,180,17.9,17.9,66,0.00,,,0.00,WUHU21623XXSP,2013-01-19 01:14:00,
2013-01-18 20:15:00,31.8,22.1,29.64,South,180,12.5,17.9,67,0.00,,,0.00,WUHU21623XXSP,2013-01-19 01:15:00,
2013-01-18 20:19:00,31.8,22.1,29.63,South,180,19.7,19.7,67,0.00,,,0.00,WUHU21623XXSP,2013-01-19 01:19:00,
2013-01-18 20:20:00,31.8,22.1,29.63,South,180,19.7,19.7,67,0.00,,,0.00,WUHU21623XXSP,2013-01-19 01:20:00,
2013-01-18 20:21:00,31.8,22.1,29.63,South,180,19.0,19.7,67,0.00,,,0.00,WUHU21623XXSP,2013-01-19 01:21:00,
2013-01-18 20:24:00,31.8,22.1,29.63,South,180,19.0,19.7,67,0.00,,,0.00,WUHU21623XXSP,2013-01-19 01:24:00,
2013-01-18 20:25:00,31.8,22.1,29.63,South,180,13.9,19.7,67,0.00,,,0.00,WUHU21623XXSP,2013-01-19 01:25:00,
2013-01-18 20:26:00,31.8,22.1,29.63,South,180,13.9,19.7,67,0.00,,,0.00,WUHU21623XXSP,2013-01-19 01:26:00,
2013-01-18 20:29:00,31.8,22.1,29.64,South,180,18.3,19.0,67,0.00,,,0.00,WUHU21623XXSP,2013-01-19 01:29:00,
2013-01-18 20:30:00,31.8,22.1,29.64,South,180,18.3,19.0,67,0.00,,,0.00,WUHU21623XXSP,2013-01-19 01:30:00,
2013-01-18 20:31:00,31.8,22.1,29.64,South,180,18.3,19.0,67,0.00,,,0.00,WUHU21623XXSP,2013-01-19 01:31:00,
2013-01-18 20:34:00,31.8,21.7,29.63,SSW,202,17.4,18.8,66,0.00,,,0.00,WUHU21623XXSP,2013-01-19 01:34:00,
2013-01-18 20:35:00,31.8,21.7,29.63,SSW,202,17.4,18.8,66,0.00,,,0.00,WUHU21623XXSP,2013-01-19 01:35:00,
2013-01-18 20:36:00,31.8,21.7,29.64,South,180,14.1,18.8,66,0.00,,,0.00,WUHU21623XXSP,2013-01-19 01:36:00,
2013-01-18 20:39:00,32.0,21.9,29.63,South,180,18.3,18.8,66,0.00,,,0.00,WUHU21623XXSP,2013-01-19 01:39:00,
2013-01-18 20:41:00,32.2,22.1,29.63,SSW,202,10.1,18.8,66,0.00,,,0.00,WUHU21623XXSP,2013-01-19 01:41:00,
2013-01-18 20:42:00,32.2,22.1,29.63,SSW,202,10.1,18.3,66,0.00,,,0.00,WUHU21623XXSP,2013-01-19 01:42:00,
2013-01-18 20:45:00,32.2,22.1,29.63,South,180,15.2,18.3,66,0.00,,,0.00,WUHU21623XXSP,2013-01-19 01:45:00,
2013-01-18 20:46:00,32.4,22.2,29.63,SSW,202,20.1,20.1,66,0.00,,,0.00,WUHU21623XXSP,2013-01-19 01:46:00,
2013-01-18 20:47:00,32.4,22.2,29.63,SSW,202,20.1,20.1,66,0.00,,,0.00,WUHU21623XXSP,2013-01-19 01:47:00,
2013-01-18 20:48:00,32.4,22.2,29.63,SSW,202,20.1,20.1,66,0.00,,,0.00,WUHU21623XXSP,2013-01-19 01:48:00,
2013-01-18 20:50:00,32.2,22.1,29.62,SSW,202,17.7,20.1,66,0.00,,,0.00,WUHU21623XXSP,2013-01-19 01:50:00,
2013-01-18 20:51:00,32.4,22.2,29.62,South,180,14.3,20.1,66,0.00,,,0.00,WUHU21623XXSP,2013-01-19 01:51:00,
2013-01-18 20:52:00,32.4,22.2,29.62,South,180,14.3,20.1,66,0.00,,,0.00,WUHU21623XXSP,2013-01-19 01:52:00,
2013-01-18 20:53:00,32.4,22.2,29.63,SSW,202,18.6,20.1,66,0.00,,,0.00,WUHU21623XXSP,2013-01-19 01:53:00,
2013-01-18 20:55:00,32.4,22.2,29.62,SSW,202,13.9,20.1,66,0.00,,,0.00,WUHU21623XXSP,2013-01-19 01:55:00,
2013-01-18 20:56:00,32.4,22.2,29.62,SSW,202,13.9,20.1,66,0.00,,,0.00,WUHU21623XXSP,2013-01-19 01:56:00,
2013-01-18 20:57:00,32.4,22.2,29.62,South,180,11.9,18.6,66,0.00,,,0.00,WUHU21623XXSP,2013-01-19 01:57:00,
2013-01-18 20:59:00,32.4,22.2,29.62,SSW,202,15.4,18.6,66,0.00,,,0.00,WUHU21623XXSP,2013-01-19 01:59:00,
2013-01-18 21:00:00,32.4,22.2,29.62,SSW,202,15.4,18.6,66,0.00,,,0.00,WUHU21623XXSP,2013-01-19 02:00:00,
2013-01-18 21:01:00,32.4,22.2,29.62,South,180,14.5,18.6,66,0.00,,,0.00,WUHU21623XXSP,2013-01-19 02:01:00,
2013-01-18 21:03:00,32.4,22.2,29.62,South,180,14.5,15.4,66,0.00,,,0.00,WUHU21623XXSP,2013-01-19 02:03:00,
2013-01-18 21:04:00,32.4,22.2,29.62,SSW,202,16.1,16.1,66,0.00,,,0.00,WUHU21623XXSP,2013-01-19 02:04:00,
2013-01-18 21:05:00,32.4,22.2,29.62,SSW,202,16.1,16.1,66,0.00,,,0.00,WUHU21623XXSP,2013-01-19 02:05:00,
2013-01-18 21:06:00,32.4,22.2,29.62,SSW,202,14.8,16.1,66,0.00,,,0.00,WUHU21623XXSP,2013-01-19 02:06:00,
2013-01-18 21:08:00,32.4,22.2,29.62,SSW,202,9.2,16.1,66,0.00,,,0.00,WUHU21623XXSP,2013-01-19 02:08:00,
2013-01-18 21:10:00,32.4,21.9,29.62,South,180,15.4,16.1,65,0.00,,,0.00,WUHU21623XXSP,2013-01-19 02:10:00,
2013-01-18 21:12:00,32.4,21.9,29.62,South,180,15.4,16.1,65,0.00,,,0.00,WUHU21623XXSP,2013-01-19 02:12:00,
2013-01-18 21:13:00,32.4,21.9,29.63,South,180,11.9,16.1,65,0.00,,,0.00,WUHU21623XXSP,2013-01-19 02:13:00,
2013-01-18 21:15:00,32.5,22.0,29.63,South,180,14.8,15.4,65,0.00,,,0.00,WUHU21623XXSP,2013-01-19 02:15:00,
2013-01-18 21:17:00,32.5,22.0,29.62,SSW,202,11.6,15.4,65,0.00,,,0.00,WUHU21623XXSP,2013-01-19 02:17:00,
2013-01-18 21:18:00,32.5,22.0,29.62,SSW,202,11.6,15.4,65,0.00,,,0.00,WUHU21623XXSP,2013-01-19 02:18:00,
2013-01-18 21:20:00,32.5,22.0,29.63,SSW,202,8.1,14.8,65,0.00,,,0.00,WUHU21623XXSP,2013-01-19 02:20:00,
2013-01-18 21:22:00,32.5,22.0,29.63,South,180,15.9,15.9,65,0.00,,,0.00,WUHU21623XXSP,2013-01-19 02:22:00,
2013-01-18 21:23:00,32.5,22.0,29.63,SW,225,6.9,15.9,65,0.00,,,0.00,WUHU21623XXSP,2013-01-19 02:23:00,
2013-01-18 21:25:00,32.5,22.0,29.63,SW,225,9.6,15.9,65,0.00,,,0.00,WUHU21623XXSP,2013-01-19 02:25:00,
2013-01-18 21:27:00,32.7,22.2,29.64,South,180,7.6,15.9,65,0.00,,,0.00,WUHU21623XXSP,2013-01-19 02:27:00,
2013-01-18 21:28:00,32.7,22.2,29.64,South,180,7.6,15.9,65,0.00,,,0.00,WUHU21623XXSP,2013-01-19 02:28:00,
2013-01-18 21:30:00,32.7,22.2,29.64,SSW,202,8.1,9.6,65,0.00,,,0.00,WUHU21623XXSP,2013-01-19 02:30:00,
2013-01-18 21:33:00,32.7,22.2,29.64,WSW,247,8.7,9.6,65,0.00,,,0.00,WUHU21623XXSP,2013-01-19 02:33:00,
2013-01-18 21:34:00,32.5,22.0,29.64,SSW,202,8.9,9.6,65,0.00,,,0.00,WUHU21623XXSP,2013-01-19 02:34:00,
2013-01-18 21:36:00,32.5,22.0,29.64,SSW,202,13.2,13.2,65,0.00,,,0.00,WUHU21623XXSP,2013-01-19 02:36:00,
2013-01-18 21:38:00,32.7,22.2,29.64,SSW,202,10.1,13.2,65,0.00,,,0.00,WUHU21623XXSP,2013-01-19 02:38:00,
2013-01-18 21:39:00,32.7,22.2,29.64,SSW,202,10.1,13.2,65,0.00,,,0.00,WUHU21623XXSP,2013-01-19 02:39:00,
2013-01-18 21:40:00,32.7,22.2,29.64,SSW,202,10.1,13.2,65,0.00,,,0.00,WUHU21623XXSP,2013-01-19 02:40:00,
2013-01-18 21:41:00,32.7,22.2,29.64,SSW,202,8.9,13.2,65,0.00,,,0.00,WUHU21623XXSP,2013-01-19 02:41:00,
2013-01-18 21:43:00,32.7,22.2,29.63,SSW,202,8.9,13.2,65,0.00,,,0.00,WUHU21623XXSP,2013-01-19 02:43:00,
2013-01-18 21:44:00,32.5,22.0,29.64,South,180,7.2,13.2,65,0.00,,,0.00,WUHU21623XXSP,2013-01-19 02:44:00,
2013-01-18 21:45:00,32.5,22.0,29.64,South,180,7.2,13.2,65,0.00,,,0.00,WUHU21623XXSP,2013-01-19 02:45:00,
2013-01-18 21:46:00,32.5,22.0,29.64,South,180,7.2,10.1,65,0.00,,,0.00,WUHU21623XXSP,2013-01-19 02:46:00,
2013-01-18 21:49:00,32.5,22.4,29.63,SW,225,7.6,8.9,66,0.00,,,0.00,WUHU21623XXSP,2013-01-19 02:49:00,
2013-01-18 21:50:00,32.5,22.4,29.63,SW,225,7.6,8.9,66,0.00,,,0.00,WUHU21623XXSP,2013-01-19 02:50:00,
2013-01-18 21:52:00,32.5,22.4,29.63,South,180,7.8,8.9,66,0.00,,,0.00,WUHU21623XXSP,2013-01-19 02:52:00,
2013-01-18 21:54:00,32.5,22.4,29.62,South,180,10.1,10.1,66,0.00,,,0.00,WUHU21623XXSP,2013-01-19 02:54:00,
2013-01-18 21:55:00,32.5,22.4,29.62,South,180,9.6,10.1,66,0.00,,,0.00,WUHU21623XXSP,2013-01-19 02:55:00,
2013-01-18 21:57:00,32.5,22.4,29.62,South,180,9.6,10.1,66,0.00,,,0.00,WUHU21623XXSP,2013-01-19 02:57:00,
2013-01-18 21:59:00,32.5,22.4,29.63,SSW,202,9.6,13.9,66,0.00,,,0.00,WUHU21623XXSP,2013-01-19 02:59:00,
2013-01-18 22:01:00,32.5,22.4,29.63,SSW,202,9.6,13.9,66,0.00,,,0.00,WUHU21623XXSP,2013-01-19 03:01:00,
2013-01-18 22:02:00,32.5,22.4,29.62,South,180,9.4,13.9,66,0.00,,,0.00,WUHU21623XXSP,2013-01-19 03:02:00,
2013-01-18 22:05:00,32.5,22.4,29.62,South,180,8.9,13.9,66,0.00,,,0.00,WUHU21623XXSP,2013-01-19 03:05:00,
2013-01-18 22:06:00,32.5,22.4,29.62,SSW,202,6.9,13.9,66,0.00,,,0.00,WUHU21623XXSP,2013-01-19 03:06:00,
2013-01-18 22:07:00,32.5,22.4,29.62,SSW,202,6.9,13.9,66,0.00,,,0.00,WUHU21623XXSP,2013-01-19 03:07:00,
2013-01-18 22:10:00,32.5,22.4,29.62,SSW,202,15.2,15.2,66,0.00,,,0.00,WUHU21623XXSP,2013-01-19 03:10:00,
2013-01-18 22:11:00,32.5,22.4,29.62,SSW,202,15.2,15.2,66,0.00,,,0.00,WUHU21623XXSP,2013-01-19 03:11:00,
2013-01-18 22:12:00,32.5,22.4,29.62,South,180,10.7,15.2,66,0.00,,,0.00,WUHU21623XXSP,2013-01-19 03:12:00,
2013-01-18 22:15:00,32.5,22.4,29.62,South,180,12.3,15.2,66,0.00,,,0.00,WUHU21623XXSP,2013-01-19 03:15:00,
2013-01-18 22:16:00,32.5,22.4,29.62,South,180,12.3,15.2,66,0.00,,,0.00,WUHU21623XXSP,2013-01-19 03:16:00,
2013-01-18 22:17:00,32.5,22.4,29.62,SSW,202,8.7,15.2,66,0.00,,,0.00,WUHU21623XXSP,2013-01-19 03:17:00,
2013-01-18 22:20:00,32.5,22.8,29.62,SW,225,10.1,12.3,67,0.00,,,0.00,WUHU21623XXSP,2013-01-19 03:20:00,
2013-01-18 22:22:00,32.5,22.8,29.62,SW,225,10.1,12.3,67,0.00,,,0.00,WUHU21623XXSP,2013-01-19 03:22:00,
2013-01-18 22:23:00,32.5,22.8,29.62,South,180,9.8,12.3,67,0.00,,,0.00,WUHU21623XXSP,2013-01-19 03:23:00,
2013-01-18 22:26:00,32.5,22.8,29.62,SSW,202,10.7,10.7,67,0.00,,,0.00,WUHU21623XXSP,2013-01-19 03:26:00,
2013-01-18 22:27:00,32.4,22.6,29.62,SSW,202,7.2,10.7,67,0.00,,,0.00,WUHU21623XXSP,2013-01-19 03:27:00,
2013-01-18 22:28:00,32.4,22.6,29.62,SSW,202,7.2,10.7,67,0.00,,,0.00,WUHU21623XXSP,2013-01-19 03:28:00,
2013-01-18 22:31:00,32.4,22.6,29.62,South,180,9.6,15.2,67,0.00,,,0.00,WUHU21623XXSP,2013-01-19 03:31:00,
2013-01-18 22:32:00,32.4,22.6,29.62,South,180,9.6,15.2,67,0.00,,,0.00,WUHU21623XXSP,2013-01-19 03:32:00,
2013-01-18 22:33:00,32.4,22.6,29.62,South,180,9.6,15.2,67,0.00,,,0.00,WUHU21623XXSP,2013-01-19 03:33:00,
2013-01-18 22:34:00,32.4,22.6,29.61,SSW,202,8.3,15.2,67,0.00,,,0.00,WUHU21623XXSP,2013-01-19 03:34:00,
2013-01-18 22:37:00,32.2,22.4,29.61,SSW,202,10.7,15.2,67,0.00,,,0.00,WUHU21623XXSP,2013-01-19 03:37:00,
2013-01-18 22:38:00,32.2,22.4,29.61,SSW,202,11.9,15.2,67,0.00,,,0.00,WUHU21623XXSP,2013-01-19 03:38:00,
2013-01-18 22:39:00,32.2,22.4,29.61,SSW,202,11.9,11.9,67,0.00,,,0.00,WUHU21623XXSP,2013-01-19 03:39:00,
2013-01-18 22:42:00,32.2,22.4,29.61,SW,225,11.0,11.9,67,0.00,,,0.00,WUHU21623XXSP,2013-01-19 03:42:00,
2013-01-18 22:43:00,32.2,22.4,29.61,South,180,9.8,11.9,67,0.00,,,0.00,WUHU21623XXSP,2013-01-19 03:43:00,
2013-01-18 22:44:00,32.2,22.4,29.61,South,180,9.8,11.9,67,0.00,,,0.00,WUHU21623XXSP,2013-01-19 03:44:00,
2013-01-18 22:45:00,32.2,22.4,29.61,South,180,11.6,11.9,67,0.00,,,0.00,WUHU21623XXSP,2013-01-19 03:45:00,
2013-01-18 22:47:00,32.2,22.4,29.61,South,180,7.8,11.9,67,0.00,,,0.00,WUHU21623XXSP,2013-01-19 03:47:00,
2013-01-18 22:48:00,32.2,22.4,29.61,South,180,7.8,11.6,67,0.00,,,0.00,WUHU21623XXSP,2013-01-19 03:48:00,
2013-01-18 22:49:00,32.2,22.4,29.61,SSW,202,10.3,11.6,67,0.00,,,0.00,WUHU21623XXSP,2013-01-19 03:49:00,
2013-01-18 22:50:00,32.2,22.4,29.61,SSW,202,10.3,11.6,67,0.00,,,0.00,WUHU21623XXSP,2013-01-19 03:50:00,
2013-01-18 22:52:00,32.2,22.4,29.61,South,180,11.0,11.6,67,0.00,,,0.00,WUHU21623XXSP,2013-01-19 03:52:00,
2013-01-18 22:53:00,32.2,22.4,29.61,South,180,8.1,11.6,67,0.00,,,0.00,WUHU21623XXSP,2013-01-19 03:53:00,
2013-01-18 22:54:00,32.2,22.4,29.61,South,180,8.1,11.0,67,0.00,,,0.00,WUHU21623XXSP,2013-01-19 03:54:00,
2013-01-18 22:55:00,32.2,22.8,29.61,South,180,11.9,11.9,68,0.00,,,0.00,WUHU21623XXSP,2013-01-19 03:55:00,
2013-01-18 22:57:00,32.2,22.8,29.61,South,180,11.9,11.9,68,0.00,,,0.00,WUHU21623XXSP,2013-01-19 03:57:00,
2013-01-18 22:58:00,32.2,22.8,29.61,SSW,202,11.4,11.9,68,0.00,,,0.00,WUHU21623XXSP,2013-01-19 03:58:00,
2013-01-18 22:59:00,32.2,22.8,29.61,South,180,10.5,11.9,68,0.00,,,0.00,WUHU21623XXSP,2013-01-19 03:59:00,
2013-01-18 23:00:00,32.2,22.8,29.61,South,180,10.5,11.9,68,0.00,,,0.00,WUHU21623XXSP,2013-01-19 04:00:00,
2013-01-18 23:02:00,32.2,22.8,29.61,South,180,10.1,11.9,68,0.00,,,0.00,WUHU21623XXSP,2013-01-19 04:02:00,
2013-01-18 23:04:00,32.2,22.8,29.61,South,180,11.2,11.9,68,0.00,,,0.00,WUHU21623XXSP,2013-01-19 04:04:00,
2013-01-18 23:05:00,32.2,22.8,29.61,South,180,11.2,11.9,68,0.00,,,0.00,WUHU21623XXSP,2013-01-19 04:05:00,
2013-01-18 23:06:00,32.2,22.8,29.60,South,180,10.1,11.4,68,0.00,,,0.00,WUHU21623XXSP,2013-01-19 04:06:00,
2013-01-18 23:07:00,32.2,22.8,29.60,South,180,9.8,11.2,68,0.00,,,0.00,WUHU21623XXSP,2013-01-19 04:07:00,
2013-01-18 23:09:00,32.2,22.8,29.60,South,180,9.8,11.2,68,0.00,,,0.00,WUHU21623XXSP,2013-01-19 04:09:00,
2013-01-18 23:10:00,32.2,22.8,29.60,SSW,202,10.3,11.2,68,0.00,,,0.00,WUHU21623XXSP,2013-01-19 04:10:00,
2013-01-18 23:12:00,32.2,22.8,29.60,SSW,202,10.3,11.2,68,0.00,,,0.00,WUHU21623XXSP,2013-01-19 04:12:00,
2013-01-18 23:13:00,32.2,22.8,29.60,SSW,202,12.1,12.1,68,0.00,,,0.00,WUHU21623XXSP,2013-01-19 04:13:00,
2013-01-18 23:14:00,32.2,22.8,29.60,SSW,202,12.1,12.1,68,0.00,,,0.00,WUHU21623XXSP,2013-01-19 04:14:00,
2013-01-18 23:15:00,32.2,22.8,29.60,SSW,202,11.0,12.1,68,0.00,,,0.00,WUHU21623XXSP,2013-01-19 04:15:00,
2013-01-18 23:17:00,32.2,22.8,29.59,SSW,202,11.0,12.1,68,0.00,,,0.00,WUHU21623XXSP,2013-01-19 04:17:00,
2013-01-18 23:19:00,32.2,22.8,29.60,South,180,9.8,12.1,68,0.00,,,0.00,WUHU21623XXSP,2013-01-19 04:19:00,
2013-01-18 23:20:00,32.2,22.8,29.60,South,180,9.8,12.1,68,0.00,,,0.00,WUHU21623XXSP,2013-01-19 04:20:00,
2013-01-18 23:22:00,32.2,22.8,29.59,South,180,9.6,11.0,68,0.00,,,0.00,WUHU21623XXSP,2013-01-19 04:22:00,
2013-01-18 23:24:00,32.2,22.8,29.59,SSW,202,9.4,11.0,68,0.00,,,0.00,WUHU21623XXSP,2013-01-19 04:24:00,
2013-01-18 23:25:00,32.2,22.8,29.59,SSW,202,9.4,11.0,68,0.00,,,0.00,WUHU21623XXSP,2013-01-19 04:25:00,
2013-01-18 23:27:00,32.2,22.8,29.59,SSW,202,9.4,9.8,68,0.00,,,0.00,WUHU21623XXSP,2013-01-19 04:27:00,
2013-01-18 23:30:00,32.2,23.2,29.59,South,180,13.0,13.0,69,0.00,,,0.00,WUHU21623XXSP,2013-01-19 04:30:00,
2013-01-18 23:33:00,32.2,23.2,29.59,South,180,12.8,13.0,69,0.00,,,0.00,WUHU21623XXSP,2013-01-19 04:33:00,
2013-01-18 23:35:00,32.2,23.2,29.59,SSW,202,11.0,13.2,69,0.00,,,0.00,WUHU21623XXSP,2013-01-19 04:35:00,
2013-01-18 23:36:00,32.2,23.2,29.59,SSW,202,11.0,13.2,69,0.00,,,0.00,WUHU21623XXSP,2013-01-19 04:36:00,
2013-01-18 23:38:00,32.4,23.2,29.59,SSW,202,11.0,13.2,69,0.00,,,0.00,WUHU21623XXSP,2013-01-19 04:38:00,
2013-01-18 23:40:00,32.4,23.3,29.59,SSW,202,10.5,13.2,69,0.00,,,0.00,WUHU21623XXSP,2013-01-19 04:40:00,
2013-01-18 23:41:00,32.4,23.3,29.59,SSW,202,10.5,13.2,69,0.00,,,0.00,WUHU21623XXSP,2013-01-19 04:41:00,
2013-01-18 23:43:00,32.4,23.3,29.59,SSW,202,9.8,11.0,69,0.00,,,0.00,WUHU21623XXSP,2013-01-19 04:43:00,
2013-01-18 23:45:00,32.4,23.3,29.59,SSW,202,8.7,11.0,69,0.00,,,0.00,WUHU21623XXSP,2013-01-19 04:45:00,
2013-01-18 23:47:00,32.4,23.3,29.59,SSW,202,8.7,11.0,69,0.00,,,0.00,WUHU21623XXSP,2013-01-19 04:47:00,
2013-01-18 23:50:00,32.2,23.2,29.59,South,180,10.7,10.7,69,0.00,,,0.00,WUHU21623XXSP,2013-01-19 04:50:00,
2013-01-18 23:51:00,32.2,23.2,29.59,South,180,10.7,10.7,69,0.00,,,0.00,WUHU21623XXSP,2013-01-19 04:51:00,
2013-01-18 23:52:00,32.2,23.2,29.59,South,180,10.7,10.7,69,0.00,,,0.00,WUHU21623XXSP,2013-01-19 04:52:00,
2013-01-18 23:53:00,32.2,23.2,29.58,SSW,202,9.6,10.7,69,0.00,,,0.00,WUHU21623XXSP,2013-01-19 04:53:00,
2013-01-18 23:56:00,32.2,23.2,29.58,South,180,12.3,12.3,69,0.00,,,0.00,WUHU21623XXSP,2013-01-19 04:56:00,
2013-01-18 23:57:00,32.2,23.2,29.58,South,180,12.3,12.3,69,0.00,,,0.00,WUHU21623XXSP,2013-01-19 04:57:00,
2013-01-18 23:58:00,32.4,23.3,29.58,South,180,7.8,12.3,69,0.00,,,0.00,WUHU21623XXSP,2013-01-19 04:58:00,